Wetterdaten: Mittwoch, 29.01.2020
Datum Zeit Temp. Aussen Temp. o. S. Temp +5cm Feuchte Auss Luftdruck Regen Sonnenschein Regendauer Solar Windben Empfang
29.01.2020 00:00 4,0 C 2,8 C 2,2 C 91 % 1000,4 hPa 0,0 l/m 0 min 2 min 0 W/m 16,1 km/h (3 Bft) 100,00 %
29.01.2020 00:02 4,0 C 2,8 C 2,2 C 91 % 1000,4 hPa 0,0 l/m 0 min 2 min 0 W/m 9,7 km/h (2 Bft) 100,00 %
29.01.2020 00:04 4,0 C 2,8 C 2,2 C 91 % 1000,4 hPa 0,0 l/m 0 min 0 min 0 W/m 19,3 km/h (3 Bft) 100,00 %
29.01.2020 00:06 4,0 C 2,8 C 2,2 C 91 % 1000,6 hPa 0,0 l/m 0 min 2 min 0 W/m 12,9 km/h (3 Bft) 97,87 %
29.01.2020 00:08 4,0 C 2,8 C 2,2 C 91 % 1000,5 hPa 0,0 l/m 0 min 2 min 0 W/m 19,3 km/h (3 Bft) 100,00 %
29.01.2020 00:10 3,9 C 2,8 C 2,2 C 91 % 1000,5 hPa 0,0 l/m 0 min 0 min 0 W/m 16,1 km/h (3 Bft) 100,00 %
29.01.2020 00:12 3,9 C 2,8 C 2,2 C 91 % 1000,4 hPa 0,0 l/m 0 min 0 min 0 W/m 9,7 km/h (2 Bft) 95,74 %
29.01.2020 00:14 3,9 C 2,8 C 2,2 C 91 % 1000,5 hPa 0,0 l/m 0 min 0 min 0 W/m 12,9 km/h (3 Bft) 100,00 %
29.01.2020 00:16 3,9 C 3,3 C 2,2 C 91 % 1000,5 hPa 0,0 l/m 0 min 0 min 0 W/m 12,9 km/h (3 Bft) 100,00 %
29.01.2020 00:18 3,9 C 2,8 C 2,2 C 91 % 1000,4 hPa 0,0 l/m 0 min 0 min 0 W/m 19,3 km/h (3 Bft) 100,00 %
29.01.2020 00:20 3,9 C 2,8 C 2,2 C 91 % 1000,5 hPa 0,0 l/m 0 min 0 min 0 W/m 16,1 km/h (3 Bft) 97,87 %
29.01.2020 00:22 3,9 C 2,8 C 2,2 C 91 % 1000,5 hPa 0,0 l/m 0 min 2 min 0 W/m 22,5 km/h (4 Bft) 95,74 %
29.01.2020 00:24 3,9 C 3,3 C 2,2 C 92 % 1000,5 hPa 0,0 l/m 0 min 0 min 0 W/m 12,9 km/h (3 Bft) 100,00 %
29.01.2020 00:26 3,9 C 3,3 C 2,2 C 92 % 1000,6 hPa 0,0 l/m 0 min 0 min 0 W/m 16,1 km/h (3 Bft) 95,74 %
29.01.2020 00:28 3,9 C 3,3 C 2,8 C 92 % 1000,6 hPa 0,0 l/m 0 min 0 min 0 W/m 16,1 km/h (3 Bft) 100,00 %
29.01.2020 00:30 3,9 C 3,3 C 2,8 C 92 % 1000,7 hPa 0,0 l/m 0 min 0 min 0 W/m 12,9 km/h (3 Bft) 100,00 %
29.01.2020 00:32 3,9 C 3,3 C 2,8 C 92 % 1000,8 hPa 0,0 l/m 0 min 0 min 0 W/m 16,1 km/h (3 Bft) 100,00 %
29.01.2020 00:34 3,9 C 3,3 C 2,8 C 92 % 1000,7 hPa 0,0 l/m 0 min 0 min 0 W/m 16,1 km/h (3 Bft) 95,74 %
29.01.2020 00:36 3,9 C 3,3 C 2,8 C 92 % 1000,8 hPa 0,0 l/m 0 min 0 min 0 W/m 19,3 km/h (3 Bft) 97,87 %
29.01.2020 00:38 3,9 C 3,3 C 2,8 C 92 % 1000,8 hPa 0,0 l/m 0 min 0 min 0 W/m 19,3 km/h (3 Bft) 97,87 %
29.01.2020 00:40 3,9 C 3,3 C 2,8 C 92 % 1000,8 hPa 0,0 l/m 0 min 0 min 0 W/m 19,3 km/h (3 Bft) 100,00 %
29.01.2020 00:42 3,9 C 3,3 C 2,8 C 92 % 1000,8 hPa 0,0 l/m 0 min 0 min 0 W/m 22,5 km/h (4 Bft) 100,00 %
29.01.2020 00:44 3,9 C 3,3 C 2,8 C 92 % 1000,8 hPa 0,0 l/m 0 min 0 min 0 W/m 12,9 km/h (3 Bft) 95,74 %
29.01.2020 00:46 4,0 C 3,3 C 2,8 C 92 % 1000,9 hPa 0,0 l/m 0 min 0 min 0 W/m 12,9 km/h (3 Bft) 97,87 %
29.01.2020 00:48 4,0 C 3,3 C 2,8 C 92 % 1000,8 hPa 0,0 l/m 0 min 0 min 0 W/m 12,9 km/h (3 Bft) 97,87 %
29.01.2020 00:50 4,0 C 3,3 C 2,8 C 92 % 1000,8 hPa 0,0 l/m 0 min 0 min 0 W/m 12,9 km/h (3 Bft) 95,65 %
29.01.2020 00:52 4,0 C 3,3 C 2,8 C 92 % 1000,9 hPa 0,0 l/m 0 min 0 min 0 W/m 16,1 km/h (3 Bft) 100,00 %
29.01.2020 00:54 3,9 C 3,3 C 2,8 C 92 % 1000,9 hPa 0,0 l/m 0 min 0 min 0 W/m 16,1 km/h (3 Bft) 95,74 %
29.01.2020 00:56 3,9 C 3,3 C 2,8 C 92 % 1000,8 hPa 0,0 l/m 0 min 0 min 0 W/m 12,9 km/h (3 Bft) 97,87 %
29.01.2020 00:58 3,9 C 3,3 C 2,8 C 92 % 1000,9 hPa 0,0 l/m 0 min 0 min 0 W/m 12,9 km/h (3 Bft) 97,87 %
29.01.2020 01:00 3,9 C 3,3 C 2,8 C 92 % 1001,0 hPa 0,0 l/m 0 min 0 min 0 W/m 16,1 km/h (3 Bft) 95,74 %
29.01.2020 01:02 3,9 C 3,3 C 2,8 C 92 % 1001,0 hPa 0,0 l/m 0 min 0 min 0 W/m 25,7 km/h (4 Bft) 97,83 %
29.01.2020 01:04 3,9 C 3,3 C 2,8 C 92 % 1001,1 hPa 0,0 l/m 0 min 0 min 0 W/m 19,3 km/h (3 Bft) 95,92 %
29.01.2020 01:06 3,9 C 3,3 C 2,8 C 92 % 1001,1 hPa 0,0 l/m 0 min 0 min 0 W/m 16,1 km/h (3 Bft) 95,74 %
29.01.2020 01:08 3,9 C 3,3 C 2,8 C 92 % 1001,1 hPa 0,0 l/m 0 min 0 min 0 W/m 19,3 km/h (3 Bft) 95,74 %
29.01.2020 01:10 3,9 C 3,3 C 2,8 C 92 % 1001,1 hPa 0,0 l/m 0 min 0 min 0 W/m 19,3 km/h (3 Bft) 93,62 %
29.01.2020 01:12 3,9 C 3,3 C 2,8 C 92 % 1001,0 hPa 0,0 l/m 0 min 0 min 0 W/m 16,1 km/h (3 Bft) 95,65 %
29.01.2020 01:14 3,9 C 3,3 C 2,8 C 92 % 1001,1 hPa 0,0 l/m 0 min 0 min 0 W/m 16,1 km/h (3 Bft) 95,74 %
29.01.2020 01:16 3,9 C 3,3 C 2,8 C 92 % 1001,2 hPa 0,0 l/m 0 min 0 min 0 W/m 16,1 km/h (3 Bft) 95,74 %
29.01.2020 01:18 3,9 C 3,3 C 2,8 C 92 % 1001,0 hPa 0,0 l/m 0 min 0 min 0 W/m 16,1 km/h (3 Bft) 95,74 %
29.01.2020 01:20 3,9 C 3,3 C 2,8 C 92 % 1001,0 hPa 0,0 l/m 0 min 0 min 0 W/m 16,1 km/h (3 Bft) 95,74 %
29.01.2020 01:22 3,9 C 3,3 C 2,8 C 92 % 1001,0 hPa 0,0 l/m 0 min 0 min 0 W/m 16,1 km/h (3 Bft) 95,74 %
29.01.2020 01:24 3,9 C 3,3 C 2,8 C 92 % 1001,0 hPa 0,0 l/m 0 min 0 min 0 W/m 16,1 km/h (3 Bft) 95,65 %
29.01.2020 01:26 3,9 C 3,3 C 2,8 C 92 % 1001,2 hPa 0,0 l/m 0 min 0 min 0 W/m 9,7 km/h (2 Bft) 95,74 %
29.01.2020 01:28 3,9 C 3,3 C 2,8 C 92 % 1001,2 hPa 0,0 l/m 0 min 0 min 0 W/m 19,3 km/h (3 Bft) 93,62 %
29.01.2020 01:30 3,9 C 2,8 C 2,2 C 92 % 1001,2 hPa 0,0 l/m 0 min 0 min 0 W/m 12,9 km/h (3 Bft) 95,74 %
29.01.2020 01:32 3,8 C 2,8 C 2,2 C 92 % 1001,3 hPa 0,0 l/m 0 min 0 min 0 W/m 9,7 km/h (2 Bft) 97,87 %
29.01.2020 01:34 3,8 C 2,8 C 2,2 C 92 % 1001,3 hPa 0,0 l/m 0 min 0 min 0 W/m 16,1 km/h (3 Bft) 95,74 %
29.01.2020 01:36 3,8 C 2,8 C 2,2 C 92 % 1001,4 hPa 0,0 l/m 0 min 0 min 0 W/m 16,1 km/h (3 Bft) 97,83 %
29.01.2020 01:38 3,8 C 2,8 C 2,2 C 92 % 1001,4 hPa 0,0 l/m 0 min 0 min 0 W/m 16,1 km/h (3 Bft) 97,87 %
29.01.2020 01:40 3,8 C 2,8 C 2,2 C 92 % 1001,4 hPa 0,0 l/m 0 min 0 min 0 W/m 12,9 km/h (3 Bft) 97,87 %
29.01.2020 01:42 3,7 C 2,8 C 2,2 C 92 % 1001,5 hPa 0,0 l/m 0 min 0 min 0 W/m 12,9 km/h (3 Bft) 95,74 %
29.01.2020 01:44 3,7 C 2,8 C 2,2 C 92 % 1001,4 hPa 0,0 l/m 0 min 0 min 0 W/m 19,3 km/h (3 Bft) 93,62 %
29.01.2020 01:46 3,7 C 2,8 C 2,2 C 92 % 1001,5 hPa 0,0 l/m 0 min 0 min 0 W/m 16,1 km/h (3 Bft) 95,74 %
29.01.2020 01:48 3,7 C 2,8 C 2,2 C 92 % 1001,5 hPa 0,0 l/m 0 min 0 min 0 W/m 16,1 km/h (3 Bft) 95,65 %
29.01.2020 01:50 3,7 C 2,8 C 2,2 C 92 % 1001,6 hPa 0,0 l/m 0 min 0 min 0 W/m 16,1 km/h (3 Bft) 100,00 %
29.01.2020 01:52 3,6 C 2,8 C 2,2 C 92 % 1001,7 hPa 0,0 l/m 0 min 0 min 0 W/m 16,1 km/h (3 Bft) 100,00 %
29.01.2020 01:54 3,6 C 2,8 C 2,2 C 92 % 1001,6 hPa 0,0 l/m 0 min 0 min 0 W/m 35,4 km/h (5 Bft) 100,00 %
29.01.2020 01:56 3,6 C 2,8 C 2,2 C 92 % 1001,7 hPa 0,0 l/m 0 min 0 min 0 W/m 19,3 km/h (3 Bft) 100,00 %
29.01.2020 01:58 3,6 C 2,8 C 2,2 C 92 % 1001,7 hPa 0,0 l/m 0 min 0 min 0 W/m 19,3 km/h (3 Bft) 97,87 %
29.01.2020 02:00 3,6 C 2,8 C 2,2 C 92 % 1001,7 hPa 0,0 l/m 0 min 0 min 0 W/m 12,9 km/h (3 Bft) 100,00 %
29.01.2020 02:02 3,6 C 2,8 C 2,2 C 92 % 1001,8 hPa 0,0 l/m 0 min 0 min 0 W/m 16,1 km/h (3 Bft) 100,00 %
29.01.2020 02:04 3,6 C 2,8 C 2,2 C 92 % 1001,8 hPa 0,0 l/m 0 min 0 min 0 W/m 12,9 km/h (3 Bft) 100,00 %
29.01.2020 02:06 3,6 C 2,8 C 2,2 C 92 % 1001,8 hPa 0,0 l/m 0 min 0 min 0 W/m 16,1 km/h (3 Bft) 100,00 %
29.01.2020 02:08 3,6 C 2,8 C 2,2 C 92 % 1001,7 hPa 0,0 l/m 0 min 0 min 0 W/m 16,1 km/h (3 Bft) 100,00 %
29.01.2020 02:10 3,6 C 2,8 C 2,2 C 92 % 1001,9 hPa 0,0 l/m 0 min 0 min 0 W/m 16,1 km/h (3 Bft) 100,00 %
29.01.2020 02:12 3,6 C 2,8 C 2,2 C 92 % 1001,9 hPa 0,0 l/m 0 min 0 min 0 W/m 16,1 km/h (3 Bft) 100,00 %
29.01.2020 02:14 3,6 C 2,8 C 2,2 C 92 % 1002,0 hPa 0,0 l/m 0 min 0 min 0 W/m 12,9 km/h (3 Bft) 97,87 %
29.01.2020 02:16 3,6 C 2,8 C 2,2 C 92 % 1001,9 hPa 0,0 l/m 0 min 0 min 0 W/m 9,7 km/h (2 Bft) 97,87 %
29.01.2020 02:18 3,6 C 2,8 C 2,2 C 92 % 1002,0 hPa 0,0 l/m 0 min 2 min 0 W/m 9,7 km/h (2 Bft) 95,65 %
29.01.2020 02:20 3,6 C 2,8 C 2,2 C 92 % 1002,0 hPa 0,0 l/m 0 min 2 min 0 W/m 16,1 km/h (3 Bft) 95,74 %
29.01.2020 02:22 3,6 C 2,8 C 2,2 C 93 % 1002,0 hPa 0,0 l/m 0 min 2 min 0 W/m 19,3 km/h (3 Bft) 97,87 %
29.01.2020 02:24 3,6 C 2,8 C 2,2 C 93 % 1002,1 hPa 0,0 l/m 0 min 2 min 0 W/m 12,9 km/h (3 Bft) 97,87 %
29.01.2020 02:26 3,6 C 2,8 C 2,2 C 93 % 1002,1 hPa 0,0 l/m 0 min 2 min 0 W/m 16,1 km/h (3 Bft) 95,74 %
29.01.2020 02:28 3,6 C 2,8 C 2,2 C 93 % 1002,1 hPa 0,0 l/m 0 min 2 min 0 W/m 22,5 km/h (4 Bft) 95,74 %
29.01.2020 02:30 3,6 C 2,2 C 2,2 C 93 % 1002,1 hPa 0,0 l/m 0 min 2 min 0 W/m 19,3 km/h (3 Bft) 97,83 %
29.01.2020 02:32 3,6 C 2,2 C 2,2 C 93 % 1002,1 hPa 0,0 l/m 0 min 2 min 0 W/m 16,1 km/h (3 Bft) 97,87 %
29.01.2020 02:34 3,5 C 2,2 C 1,7 C 93 % 1002,1 hPa 0,0 l/m 0 min 2 min 0 W/m 12,9 km/h (3 Bft) 97,87 %
29.01.2020 02:36 3,5 C 2,2 C 1,7 C 93 % 1002,1 hPa 0,0 l/m 0 min 0 min 0 W/m 6,4 km/h (2 Bft) 97,87 %
29.01.2020 02:38 3,4 C 2,2 C 1,7 C 93 % 1002,2 hPa 0,0 l/m 0 min 2 min 0 W/m 16,1 km/h (3 Bft) 95,74 %
29.01.2020 02:40 3,4 C 2,8 C 2,2 C 93 % 1002,3 hPa 0,0 l/m 0 min 2 min 0 W/m 25,7 km/h (4 Bft) 95,74 %
29.01.2020 02:42 3,4 C 2,8 C 2,2 C 93 % 1002,3 hPa 0,0 l/m 0 min 2 min 0 W/m 16,1 km/h (3 Bft) 97,83 %
29.01.2020 02:44 3,4 C 2,8 C 2,2 C 93 % 1002,4 hPa 0,0 l/m 0 min 2 min 0 W/m 22,5 km/h (4 Bft) 95,74 %
29.01.2020 02:46 3,4 C 2,8 C 2,2 C 93 % 1002,3 hPa 0,0 l/m 0 min 2 min 0 W/m 19,3 km/h (3 Bft) 95,74 %
29.01.2020 02:48 3,4 C 2,8 C 2,2 C 93 % 1002,3 hPa 0,0 l/m 0 min 0 min 0 W/m 16,1 km/h (3 Bft) 97,87 %
29.01.2020 02:50 3,3 C 2,8 C 2,2 C 93 % 1002,4 hPa 0,0 l/m 0 min 0 min 0 W/m 16,1 km/h (3 Bft) 97,87 %
29.01.2020 02:52 3,3 C 2,8 C 2,2 C 93 % 1002,4 hPa 0,0 l/m 0 min 2 min 0 W/m 22,5 km/h (4 Bft) 97,83 %
29.01.2020 02:54 3,3 C 2,8 C 2,2 C 93 % 1002,4 hPa 0,0 l/m 0 min 0 min 0 W/m 25,7 km/h (4 Bft) 97,87 %
29.01.2020 02:56 3,3 C 2,8 C 2,2 C 93 % 1002,5 hPa 0,0 l/m 0 min 0 min 0 W/m 19,3 km/h (3 Bft) 97,87 %
29.01.2020 02:58 3,3 C 2,8 C 2,2 C 93 % 1002,5 hPa 0,0 l/m 0 min 0 min 0 W/m 16,1 km/h (3 Bft) 97,87 %
29.01.2020 03:00 3,3 C 2,8 C 2,2 C 93 % 1002,5 hPa 0,0 l/m 0 min 0 min 0 W/m 19,3 km/h (3 Bft) 97,87 %
29.01.2020 03:02 3,3 C 2,8 C 2,2 C 93 % 1002,6 hPa 0,0 l/m 0 min 0 min 0 W/m 19,3 km/h (3 Bft) 97,87 %
29.01.2020 03:04 3,3 C 2,8 C 2,2 C 93 % 1002,7 hPa 0,0 l/m 0 min 0 min 0 W/m 19,3 km/h (3 Bft) 97,83 %
29.01.2020 03:06 3,3 C 2,8 C 2,2 C 93 % 1002,6 hPa 0,0 l/m 0 min 0 min 0 W/m 19,3 km/h (3 Bft) 95,74 %
29.01.2020 03:08 3,3 C 2,8 C 2,2 C 93 % 1002,7 hPa 0,0 l/m 0 min 0 min 0 W/m 19,3 km/h (3 Bft) 97,87 %
29.01.2020 03:10 3,3 C 2,8 C 2,2 C 93 % 1002,8 hPa 0,0 l/m 0 min 0 min 0 W/m 25,7 km/h (4 Bft) 97,87 %
29.01.2020 03:12 3,3 C 2,8 C 2,2 C 93 % 1003,0 hPa 0,0 l/m 0 min 0 min 0 W/m 25,7 km/h (4 Bft) 95,74 %
29.01.2020 03:14 3,3 C 2,8 C 2,2 C 93 % 1002,9 hPa 0,0 l/m 0 min 0 min 0 W/m 16,1 km/h (3 Bft) 97,87 %
29.01.2020 03:16 3,3 C 2,8 C 2,2 C 93 % 1003,0 hPa 0,0 l/m 0 min 0 min 0 W/m 16,1 km/h (3 Bft) 95,65 %
29.01.2020 03:18 3,3 C 2,8 C 2,2 C 93 % 1003,0 hPa 0,0 l/m 0 min 0 min 0 W/m 16,1 km/h (3 Bft) 95,74 %
29.01.2020 03:20 3,3 C 2,8 C 2,2 C 93 % 1003,1 hPa 0,0 l/m 0 min 0 min 0 W/m 16,1 km/h (3 Bft) 97,87 %
29.01.2020 03:22 3,4 C 2,8 C 2,2 C 93 % 1003,0 hPa 0,0 l/m 0 min 0 min 0 W/m 22,5 km/h (4 Bft) 95,74 %
29.01.2020 03:24 3,4 C 2,8 C 2,2 C 93 % 1003,0 hPa 0,0 l/m 0 min 0 min 0 W/m 12,9 km/h (3 Bft) 95,74 %
29.01.2020 03:26 3,4 C 2,8 C 2,2 C 93 % 1003,0 hPa 0,0 l/m 0 min 0 min 0 W/m 16,1 km/h (3 Bft) 97,87 %
29.01.2020 03:28 3,4 C 2,8 C 2,2 C 93 % 1003,1 hPa 0,0 l/m 0 min 0 min 0 W/m 29,0 km/h (5 Bft) 97,83 %
29.01.2020 03:30 3,4 C 2,8 C 2,2 C 93 % 1003,1 hPa 0,0 l/m 0 min 0 min 0 W/m 29,0 km/h (5 Bft) 95,74 %
29.01.2020 03:32 3,4 C 2,8 C 2,2 C 93 % 1003,1 hPa 0,0 l/m 0 min 0 min 0 W/m 16,1 km/h (3 Bft) 87,23 %
29.01.2020 03:34 3,4 C 2,8 C 2,2 C 93 % 1003,1 hPa 0,0 l/m 0 min 0 min 0 W/m 12,9 km/h (3 Bft) 97,87 %
29.01.2020 03:36 3,4 C 2,8 C 2,2 C 94 % 1003,1 hPa 0,0 l/m 0 min 0 min 0 W/m 19,3 km/h (3 Bft) 97,87 %
29.01.2020 03:38 3,4 C 2,8 C 2,2 C 94 % 1003,1 hPa 0,0 l/m 0 min 0 min 0 W/m 19,3 km/h (3 Bft) 97,87 %
29.01.2020 03:40 3,4 C 2,8 C 2,2 C 94 % 1003,1 hPa 0,0 l/m 0 min 0 min 0 W/m 16,1 km/h (3 Bft) 95,65 %
29.01.2020 03:42 3,4 C 2,8 C 2,2 C 94 % 1003,0 hPa 0,0 l/m 0 min 0 min 0 W/m 22,5 km/h (4 Bft) 95,74 %
29.01.2020 03:44 3,4 C 2,8 C 2,2 C 94 % 1003,1 hPa 0,0 l/m 0 min 0 min 0 W/m 16,1 km/h (3 Bft) 97,87 %
29.01.2020 03:46 3,4 C 2,8 C 2,2 C 94 % 1003,2 hPa 0,0 l/m 0 min 0 min 0 W/m 22,5 km/h (4 Bft) 93,62 %
29.01.2020 03:48 3,5 C 2,8 C 2,2 C 94 % 1003,2 hPa 0,0 l/m 0 min 0 min 0 W/m 16,1 km/h (3 Bft) 91,49 %
29.01.2020 03:50 3,5 C 2,8 C 2,2 C 94 % 1003,1 hPa 0,0 l/m 0 min 0 min 0 W/m 12,9 km/h (3 Bft) 95,74 %
29.01.2020 03:52 3,5 C 2,8 C 2,2 C 94 % 1003,3 hPa 0,0 l/m 0 min 0 min 0 W/m 19,3 km/h (3 Bft) 95,65 %
29.01.2020 03:54 3,5 C 2,8 C 2,2 C 94 % 1003,2 hPa 0,0 l/m 0 min 0 min 0 W/m 19,3 km/h (3 Bft) 95,74 %
29.01.2020 03:56 3,5 C 3,3 C 2,8 C 94 % 1003,3 hPa 0,0 l/m 0 min 0 min 0 W/m 25,7 km/h (4 Bft) 91,49 %
29.01.2020 03:58 3,6 C 3,3 C 2,8 C 94 % 1003,3 hPa 0,0 l/m 0 min 0 min 0 W/m 16,1 km/h (3 Bft) 93,62 %
29.01.2020 04:00 3,6 C 3,3 C 2,8 C 94 % 1003,3 hPa 0,0 l/m 0 min 0 min 0 W/m 25,7 km/h (4 Bft) 95,74 %
29.01.2020 04:04 3,6 C 3,3 C 2,8 C 94 % 1003,3 hPa 0,0 l/m 0 min 0 min 0 W/m 22,5 km/h (4 Bft) 90,32 %
29.01.2020 04:06 3,6 C 3,3 C 2,8 C 94 % 1003,4 hPa 0,0 l/m 0 min 0 min 0 W/m 19,3 km/h (3 Bft) 95,74 %
29.01.2020 04:08 3,6 C 3,3 C 2,8 C 94 % 1003,4 hPa 0,0 l/m 0 min 0 min 0 W/m 19,3 km/h (3 Bft) 95,74 %
29.01.2020 04:10 3,6 C 3,3 C 2,8 C 94 % 1003,3 hPa 0,0 l/m 0 min 0 min 0 W/m 22,5 km/h (4 Bft) 97,87 %
29.01.2020 04:12 3,6 C 3,3 C 2,8 C 94 % 1003,4 hPa 0,0 l/m 0 min 0 min 0 W/m 22,5 km/h (4 Bft) 97,87 %
29.01.2020 04:14 3,6 C 3,3 C 2,8 C 94 % 1003,4 hPa 0,0 l/m 0 min 0 min 0 W/m 22,5 km/h (4 Bft) 97,83 %
29.01.2020 04:16 3,7 C 3,3 C 2,8 C 94 % 1003,4 hPa 0,0 l/m 0 min 0 min 0 W/m 12,9 km/h (3 Bft) 97,87 %
29.01.2020 04:18 3,7 C 3,3 C 2,8 C 93 % 1003,4 hPa 0,0 l/m 0 min 0 min 0 W/m 25,7 km/h (4 Bft) 97,87 %
29.01.2020 04:20 3,7 C 3,3 C 2,8 C 93 % 1003,4 hPa 0,0 l/m 0 min 0 min 0 W/m 22,5 km/h (4 Bft) 97,87 %
29.01.2020 04:22 3,7 C 3,3 C 2,8 C 93 % 1003,4 hPa 0,0 l/m 0 min 0 min 0 W/m 16,1 km/h (3 Bft) 95,74 %
29.01.2020 04:24 3,7 C 3,3 C 2,8 C 93 % 1003,3 hPa 0,0 l/m 0 min 0 min 0 W/m 22,5 km/h (4 Bft) 97,87 %
29.01.2020 04:26 3,7 C 3,3 C 2,8 C 94 % 1003,4 hPa 0,0 l/m 0 min 0 min 0 W/m 22,5 km/h (4 Bft) 97,83 %
29.01.2020 04:28 3,7 C 3,3 C 2,8 C 93 % 1003,5 hPa 0,0 l/m 0 min 0 min 0 W/m 22,5 km/h (4 Bft) 97,87 %
29.01.2020 04:30 3,7 C 3,3 C 2,8 C 93 % 1003,5 hPa 0,0 l/m 0 min 0 min 0 W/m 16,1 km/h (3 Bft) 97,87 %
29.01.2020 04:32 3,7 C 3,3 C 2,8 C 93 % 1003,5 hPa 0,0 l/m 0 min 0 min 0 W/m 22,5 km/h (4 Bft) 100,00 %
29.01.2020 04:34 3,7 C 3,3 C 2,8 C 93 % 1003,6 hPa 0,0 l/m 0 min 0 min 0 W/m 25,7 km/h (4 Bft) 97,87 %
29.01.2020 04:36 3,7 C 2,8 C 2,8 C 93 % 1003,6 hPa 0,0 l/m 0 min 0 min 0 W/m 16,1 km/h (3 Bft) 100,00 %
29.01.2020 04:38 3,7 C 2,8 C 2,8 C 93 % 1003,6 hPa 0,0 l/m 0 min 0 min 0 W/m 19,3 km/h (3 Bft) 100,00 %
29.01.2020 04:40 3,7 C 2,8 C 2,2 C 93 % 1003,6 hPa 0,0 l/m 0 min 0 min 0 W/m 19,3 km/h (3 Bft) 100,00 %
29.01.2020 04:42 3,7 C 3,3 C 2,2 C 93 % 1003,8 hPa 0,0 l/m 0 min 0 min 0 W/m 22,5 km/h (4 Bft) 100,00 %
29.01.2020 04:44 3,7 C 3,3 C 2,8 C 93 % 1003,6 hPa 0,0 l/m 0 min 0 min 0 W/m 16,1 km/h (3 Bft) 100,00 %
29.01.2020 04:46 3,7 C 3,3 C 2,8 C 93 % 1003,6 hPa 0,0 l/m 0 min 0 min 0 W/m 19,3 km/h (3 Bft) 100,00 %
29.01.2020 04:48 3,7 C 3,3 C 2,8 C 93 % 1003,7 hPa 0,0 l/m 0 min 0 min 0 W/m 22,5 km/h (4 Bft) 100,00 %
29.01.2020 04:50 3,7 C 2,8 C 2,2 C 93 % 1003,6 hPa 0,0 l/m 0 min 0 min 0 W/m 12,9 km/h (3 Bft) 100,00 %
29.01.2020 04:52 3,7 C 2,8 C 2,2 C 93 % 1003,8 hPa 0,0 l/m 0 min 0 min 0 W/m 29,0 km/h (5 Bft) 97,87 %
29.01.2020 04:54 3,7 C 2,8 C 2,2 C 93 % 1003,8 hPa 0,0 l/m 0 min 0 min 0 W/m 16,1 km/h (3 Bft) 100,00 %
29.01.2020 04:56 3,7 C 2,8 C 2,2 C 93 % 1003,9 hPa 0,0 l/m 0 min 0 min 0 W/m 19,3 km/h (3 Bft) 100,00 %
29.01.2020 04:58 3,7 C 2,8 C 2,2 C 93 % 1003,9 hPa 0,0 l/m 0 min 0 min 0 W/m 9,7 km/h (2 Bft) 48,72 %
29.01.2020 05:00 3,6 C 2,8 C 2,2 C 93 % 1003,9 hPa 0,0 l/m 0 min 0 min 0 W/m 16,1 km/h (3 Bft) 100,00 %
29.01.2020 05:06 3,6 C 2,8 C 2,2 C 93 % 1003,9 hPa 0,0 l/m 0 min 0 min 0 W/m 19,3 km/h (3 Bft) 98,21 %
29.01.2020 05:08 3,6 C 2,8 C 2,2 C 93 % 1003,9 hPa 0,0 l/m 0 min 0 min 0 W/m 22,5 km/h (4 Bft) 97,87 %
29.01.2020 05:10 3,6 C 2,8 C 2,2 C 93 % 1004,0 hPa 0,0 l/m 0 min 0 min 0 W/m 16,1 km/h (3 Bft) 100,00 %
29.01.2020 05:12 3,6 C 2,8 C 2,2 C 93 % 1004,0 hPa 0,0 l/m 0 min 0 min 0 W/m 12,9 km/h (3 Bft) 100,00 %
29.01.2020 05:14 3,6 C 2,8 C 2,2 C 93 % 1004,0 hPa 0,0 l/m 0 min 0 min 0 W/m 22,5 km/h (4 Bft) 100,00 %
29.01.2020 05:16 3,5 C 2,8 C 2,2 C 93 % 1004,1 hPa 0,0 l/m 0 min 0 min 0 W/m 16,1 km/h (3 Bft) 100,00 %
29.01.2020 05:18 3,5 C 2,8 C 2,2 C 93 % 1004,1 hPa 0,0 l/m 0 min 0 min 0 W/m 16,1 km/h (3 Bft) 97,87 %
29.01.2020 05:20 3,5 C 2,8 C 2,2 C 93 % 1004,1 hPa 0,0 l/m 0 min 0 min 0 W/m 19,3 km/h (3 Bft) 100,00 %
29.01.2020 05:22 3,5 C 2,8 C 2,2 C 93 % 1004,2 hPa 0,0 l/m 0 min 0 min 0 W/m 19,3 km/h (3 Bft) 100,00 %
29.01.2020 05:24 3,5 C 2,8 C 2,2 C 93 % 1004,2 hPa 0,0 l/m 0 min 0 min 0 W/m 25,7 km/h (4 Bft) 100,00 %
29.01.2020 05:26 3,5 C 2,8 C 2,2 C 93 % 1004,1 hPa 0,0 l/m 0 min 0 min 0 W/m 22,5 km/h (4 Bft) 100,00 %
29.01.2020 05:28 3,4 C 2,8 C 2,2 C 93 % 1004,2 hPa 0,0 l/m 0 min 0 min 0 W/m 25,7 km/h (4 Bft) 97,83 %
29.01.2020 05:30 3,4 C 2,8 C 2,2 C 93 % 1004,2 hPa 0,0 l/m 0 min 0 min 0 W/m 19,3 km/h (3 Bft) 100,00 %
29.01.2020 05:32 3,4 C 2,8 C 2,2 C 93 % 1004,2 hPa 0,0 l/m 0 min 0 min 0 W/m 19,3 km/h (3 Bft) 100,00 %
29.01.2020 05:34 3,4 C 2,8 C 2,2 C 93 % 1004,3 hPa 0,0 l/m 0 min 0 min 0 W/m 16,1 km/h (3 Bft) 100,00 %
29.01.2020 05:36 3,4 C 2,8 C 2,2 C 93 % 1004,3 hPa 0,0 l/m 0 min 0 min 0 W/m 29,0 km/h (5 Bft) 100,00 %
29.01.2020 05:38 3,4 C 2,8 C 2,2 C 93 % 1004,3 hPa 0,0 l/m 0 min 0 min 0 W/m 16,1 km/h (3 Bft) 97,87 %
29.01.2020 05:40 3,4 C 2,8 C 2,2 C 93 % 1004,3 hPa 0,0 l/m 0 min 0 min 0 W/m 22,5 km/h (4 Bft) 100,00 %
29.01.2020 05:42 3,4 C 2,8 C 2,2 C 93 % 1004,3 hPa 0,0 l/m 0 min 0 min 0 W/m 22,5 km/h (4 Bft) 100,00 %
29.01.2020 05:44 3,4 C 2,8 C 2,2 C 93 % 1004,3 hPa 0,0 l/m 0 min 0 min 0 W/m 12,9 km/h (3 Bft) 97,87 %
29.01.2020 05:46 3,4 C 2,8 C 2,2 C 93 % 1004,3 hPa 0,0 l/m 0 min 0 min 0 W/m 16,1 km/h (3 Bft) 100,00 %
29.01.2020 05:48 3,4 C 2,8 C 2,2 C 93 % 1004,3 hPa 0,0 l/m 0 min 0 min 0 W/m 12,9 km/h (3 Bft) 97,87 %
29.01.2020 05:50 3,4 C 2,8 C 2,2 C 92 % 1004,4 hPa 0,0 l/m 0 min 0 min 0 W/m 12,9 km/h (3 Bft) 100,00 %
29.01.2020 05:52 3,3 C 2,8 C 2,2 C 92 % 1004,3 hPa 0,0 l/m 0 min 0 min 0 W/m 6,4 km/h (2 Bft) 97,83 %
29.01.2020 05:54 3,3 C 2,8 C 2,2 C 92 % 1004,5 hPa 0,0 l/m 0 min 0 min 0 W/m 32,2 km/h (5 Bft) 97,87 %
29.01.2020 05:56 3,3 C 2,8 C 2,2 C 92 % 1004,5 hPa 0,0 l/m 0 min 0 min 0 W/m 16,1 km/h (3 Bft) 95,74 %
29.01.2020 05:58 3,3 C 2,8 C 2,2 C 92 % 1004,5 hPa 0,0 l/m 0 min 0 min 0 W/m 25,7 km/h (4 Bft) 95,74 %
29.01.2020 06:00 3,3 C 2,8 C 2,2 C 92 % 1004,4 hPa 0,0 l/m 0 min 0 min 0 W/m 19,3 km/h (3 Bft) 95,74 %
29.01.2020 06:02 3,3 C 2,8 C 2,2 C 92 % 1004,4 hPa 0,0 l/m 0 min 0 min 0 W/m 22,5 km/h (4 Bft) 97,83 %
29.01.2020 06:04 3,3 C 2,8 C 2,2 C 92 % 1004,4 hPa 0,0 l/m 0 min 0 min 0 W/m 12,9 km/h (3 Bft) 97,87 %
29.01.2020 06:06 3,3 C 2,8 C 2,2 C 92 % 1004,5 hPa 0,0 l/m 0 min 0 min 0 W/m 12,9 km/h (3 Bft) 93,62 %
29.01.2020 06:08 3,3 C 2,8 C 2,2 C 92 % 1004,4 hPa 0,0 l/m 0 min 0 min 0 W/m 16,1 km/h (3 Bft) 95,74 %
29.01.2020 06:10 3,3 C 2,8 C 2,2 C 92 % 1004,6 hPa 0,0 l/m 0 min 0 min 0 W/m 16,1 km/h (3 Bft) 93,62 %
29.01.2020 06:12 3,3 C 2,8 C 2,2 C 92 % 1004,6 hPa 0,0 l/m 0 min 0 min 0 W/m 22,5 km/h (4 Bft) 97,87 %
29.01.2020 06:14 3,3 C 2,8 C 2,2 C 92 % 1004,5 hPa 0,0 l/m 0 min 0 min 0 W/m 22,5 km/h (4 Bft) 95,65 %
29.01.2020 06:16 3,3 C 2,8 C 2,2 C 92 % 1004,5 hPa 0,0 l/m 0 min 0 min 0 W/m 16,1 km/h (3 Bft) 95,74 %
29.01.2020 06:18 3,3 C 2,8 C 2,2 C 92 % 1004,6 hPa 0,0 l/m 0 min 0 min 0 W/m 16,1 km/h (3 Bft) 95,74 %
29.01.2020 06:20 3,3 C 2,8 C 2,2 C 92 % 1004,5 hPa 0,0 l/m 0 min 0 min 0 W/m 12,9 km/h (3 Bft) 93,62 %
29.01.2020 06:22 3,3 C 2,8 C 2,2 C 92 % 1004,6 hPa 0,0 l/m 0 min 0 min 0 W/m 16,1 km/h (3 Bft) 95,74 %
29.01.2020 06:24 3,3 C 2,8 C 2,2 C 92 % 1004,6 hPa 0,0 l/m 0 min 0 min 0 W/m 12,9 km/h (3 Bft) 95,74 %
29.01.2020 06:26 3,3 C 2,8 C 2,2 C 92 % 1004,6 hPa 0,0 l/m 0 min 0 min 0 W/m 12,9 km/h (3 Bft) 93,48 %
29.01.2020 06:28 3,3 C 2,8 C 2,2 C 92 % 1004,7 hPa 0,0 l/m 0 min 0 min 0 W/m 22,5 km/h (4 Bft) 93,62 %
29.01.2020 06:30 3,3 C 2,8 C 2,2 C 92 % 1004,7 hPa 0,0 l/m 0 min 0 min 0 W/m 19,3 km/h (3 Bft) 93,62 %
29.01.2020 06:32 3,3 C 2,8 C 2,2 C 92 % 1004,7 hPa 0,0 l/m 0 min 0 min 0 W/m 6,4 km/h (2 Bft) 93,62 %
29.01.2020 06:34 3,3 C 2,8 C 2,2 C 92 % 1004,7 hPa 0,0 l/m 0 min 0 min 0 W/m 16,1 km/h (3 Bft) 91,49 %
29.01.2020 06:36 3,3 C 2,8 C 2,2 C 92 % 1004,6 hPa 0,0 l/m 0 min 0 min 0 W/m 16,1 km/h (3 Bft) 93,62 %
29.01.2020 06:38 3,3 C 2,8 C 2,2 C 92 % 1004,8 hPa 0,0 l/m 0 min 0 min 0 W/m 22,5 km/h (4 Bft) 93,48 %
29.01.2020 06:40 3,3 C 2,8 C 1,7 C 92 % 1004,7 hPa 0,0 l/m 0 min 0 min 0 W/m 16,1 km/h (3 Bft) 91,49 %
29.01.2020 06:42 3,3 C 2,8 C 1,7 C 92 % 1004,6 hPa 0,0 l/m 0 min 0 min 0 W/m 12,9 km/h (3 Bft) 93,62 %
29.01.2020 06:44 3,3 C 2,8 C 1,7 C 92 % 1004,7 hPa 0,0 l/m 0 min 0 min 0 W/m 22,5 km/h (4 Bft) 93,62 %
29.01.2020 06:46 3,2 C 2,8 C 1,7 C 92 % 1004,7 hPa 0,0 l/m 0 min 0 min 0 W/m 16,1 km/h (3 Bft) 91,49 %
29.01.2020 06:48 3,2 C 2,8 C 2,2 C 92 % 1004,7 hPa 0,0 l/m 0 min 0 min 0 W/m 12,9 km/h (3 Bft) 95,74 %
29.01.2020 06:50 3,2 C 2,8 C 2,2 C 92 % 1004,7 hPa 0,0 l/m 0 min 0 min 0 W/m 25,7 km/h (4 Bft) 95,65 %
29.01.2020 06:52 3,2 C 2,8 C 2,2 C 92 % 1004,7 hPa 0,0 l/m 0 min 0 min 0 W/m 19,3 km/h (3 Bft) 95,74 %
29.01.2020 06:54 3,2 C 2,8 C 2,2 C 92 % 1004,8 hPa 0,0 l/m 0 min 0 min 0 W/m 19,3 km/h (3 Bft) 93,62 %
29.01.2020 06:56 3,2 C 2,8 C 2,2 C 92 % 1004,8 hPa 0,0 l/m 0 min 0 min 0 W/m 19,3 km/h (3 Bft) 97,87 %
29.01.2020 06:58 3,2 C 2,8 C 2,2 C 92 % 1004,8 hPa 0,0 l/m 0 min 0 min 0 W/m 16,1 km/h (3 Bft) 95,74 %
29.01.2020 07:00 3,2 C 2,8 C 1,7 C 92 % 1004,9 hPa 0,0 l/m 0 min 0 min 0 W/m 22,5 km/h (4 Bft) 97,83 %
29.01.2020 07:02 3,2 C 2,8 C 1,7 C 92 % 1004,9 hPa 0,0 l/m 0 min 0 min 0 W/m 16,1 km/h (3 Bft) 97,87 %
29.01.2020 07:04 3,2 C 2,8 C 1,7 C 92 % 1004,9 hPa 0,0 l/m 0 min 0 min 0 W/m 22,5 km/h (4 Bft) 97,87 %
29.01.2020 07:06 3,2 C 2,8 C 1,7 C 92 % 1004,9 hPa 0,0 l/m 0 min 0 min 0 W/m 25,7 km/h (4 Bft) 97,87 %
29.01.2020 07:08 3,2 C 2,8 C 2,2 C 92 % 1005,0 hPa 0,0 l/m 0 min 0 min 0 W/m 12,9 km/h (3 Bft) 95,74 %
29.01.2020 07:10 3,2 C 2,8 C 2,2 C 92 % 1005,0 hPa 0,0 l/m 0 min 0 min 0 W/m 19,3 km/h (3 Bft) 95,74 %
29.01.2020 07:12 3,2 C 2,8 C 2,2 C 92 % 1005,0 hPa 0,0 l/m 0 min 0 min 0 W/m 16,1 km/h (3 Bft) 100,00 %
29.01.2020 07:14 3,3 C 2,8 C 2,2 C 92 % 1005,1 hPa 0,0 l/m 0 min 0 min 0 W/m 12,9 km/h (3 Bft) 100,00 %
29.01.2020 07:16 3,2 C 2,8 C 2,2 C 92 % 1005,1 hPa 0,0 l/m 0 min 0 min 0 W/m 19,3 km/h (3 Bft) 100,00 %
29.01.2020 07:18 3,3 C 2,8 C 2,2 C 92 % 1005,1 hPa 0,0 l/m 0 min 0 min 0 W/m 22,5 km/h (4 Bft) 100,00 %
29.01.2020 07:20 3,3 C 2,8 C 2,2 C 92 % 1005,2 hPa 0,0 l/m 0 min 0 min 0 W/m 19,3 km/h (3 Bft) 100,00 %
29.01.2020 07:22 3,3 C 2,8 C 2,2 C 92 % 1005,3 hPa 0,0 l/m 0 min 0 min 0 W/m 25,7 km/h (4 Bft) 100,00 %
29.01.2020 07:24 3,3 C 2,8 C 2,2 C 92 % 1005,2 hPa 0,0 l/m 0 min 0 min 0 W/m 25,7 km/h (4 Bft) 100,00 %
29.01.2020 07:26 3,3 C 2,8 C 2,2 C 92 % 1005,2 hPa 0,0 l/m 0 min 0 min 0 W/m 29,0 km/h (5 Bft) 100,00 %
29.01.2020 07:28 3,3 C 2,8 C 2,2 C 92 % 1005,2 hPa 0,0 l/m 0 min 0 min 0 W/m 16,1 km/h (3 Bft) 95,74 %
29.01.2020 07:30 3,3 C 2,8 C 2,2 C 92 % 1005,2 hPa 0,0 l/m 0 min 0 min 0 W/m 16,1 km/h (3 Bft) 97,87 %
29.01.2020 07:32 3,3 C 2,8 C 2,2 C 92 % 1005,2 hPa 0,0 l/m 0 min 0 min 0 W/m 19,3 km/h (3 Bft) 100,00 %
29.01.2020 07:34 3,3 C 2,8 C 2,2 C 92 % 1005,3 hPa 0,0 l/m 0 min 0 min 0 W/m 16,1 km/h (3 Bft) 100,00 %
29.01.2020 07:36 3,3 C 2,8 C 2,2 C 92 % 1005,3 hPa 0,0 l/m 0 min 0 min 0 W/m 25,7 km/h (4 Bft) 100,00 %
29.01.2020 07:38 3,3 C 2,8 C 2,2 C 92 % 1005,2 hPa 0,0 l/m 0 min 0 min 0 W/m 16,1 km/h (3 Bft) 97,87 %
29.01.2020 07:40 3,3 C 2,8 C 2,2 C 92 % 1005,3 hPa 0,0 l/m 0 min 0 min 0 W/m 22,5 km/h (4 Bft) 97,87 %
29.01.2020 07:42 3,4 C 2,8 C 2,2 C 92 % 1005,3 hPa 0,0 l/m 0 min 0 min 0 W/m 19,3 km/h (3 Bft) 100,00 %
29.01.2020 07:44 3,4 C 2,8 C 2,2 C 92 % 1005,4 hPa 0,0 l/m 0 min 0 min 0 W/m 16,1 km/h (3 Bft) 100,00 %
29.01.2020 07:46 3,4 C 2,8 C 2,2 C 92 % 1005,4 hPa 0,0 l/m 0 min 0 min 0 W/m 22,5 km/h (4 Bft) 97,87 %
29.01.2020 07:48 3,4 C 2,8 C 2,2 C 92 % 1005,5 hPa 0,0 l/m 0 min 0 min 0 W/m 19,3 km/h (3 Bft) 100,00 %
29.01.2020 07:50 3,4 C 2,8 C 2,2 C 92 % 1005,4 hPa 0,0 l/m 0 min 0 min 0 W/m 19,3 km/h (3 Bft) 100,00 %
29.01.2020 07:52 3,4 C 2,8 C 2,2 C 92 % 1005,5 hPa 0,0 l/m 0 min 0 min 0 W/m 19,3 km/h (3 Bft) 100,00 %
29.01.2020 07:54 3,4 C 2,8 C 2,2 C 92 % 1005,5 hPa 0,0 l/m 0 min 0 min 0 W/m 25,7 km/h (4 Bft) 100,00 %
29.01.2020 07:56 3,4 C 3,3 C 2,2 C 92 % 1005,5 hPa 0,0 l/m 0 min 0 min 0 W/m 25,7 km/h (4 Bft) 100,00 %
29.01.2020 07:58 3,5 C 3,3 C 2,8 C 92 % 1005,5 hPa 0,0 l/m 0 min 0 min 0 W/m 22,5 km/h (4 Bft) 100,00 %
29.01.2020 08:00 3,5 C 3,3 C 2,2 C 91 % 1005,5 hPa 0,0 l/m 0 min 0 min 0 W/m 19,3 km/h (3 Bft) 100,00 %
29.01.2020 08:02 3,5 C 3,3 C 2,2 C 91 % 1005,6 hPa 0,0 l/m 0 min 0 min 0 W/m 16,1 km/h (3 Bft) 97,87 %
29.01.2020 08:04 3,5 C 3,3 C 2,2 C 91 % 1005,5 hPa 0,0 l/m 0 min 0 min 0 W/m 22,5 km/h (4 Bft) 100,00 %
29.01.2020 08:06 3,6 C 3,3 C 2,2 C 91 % 1005,5 hPa 0,0 l/m 0 min 0 min 0 W/m 38,6 km/h (5 Bft) 100,00 %
29.01.2020 08:08 3,6 C 3,3 C 2,2 C 91 % 1005,5 hPa 0,0 l/m 0 min 0 min 0 W/m 38,6 km/h (5 Bft) 93,62 %
29.01.2020 08:10 3,6 C 3,3 C 2,2 C 91 % 1005,5 hPa 0,0 l/m 0 min 0 min 0 W/m 25,7 km/h (4 Bft) 95,65 %
29.01.2020 08:12 3,6 C 3,3 C 2,2 C 91 % 1005,6 hPa 0,0 l/m 0 min 0 min 0 W/m 19,3 km/h (3 Bft) 97,87 %
29.01.2020 08:14 3,6 C 3,3 C 2,8 C 91 % 1005,6 hPa 0,0 l/m 0 min 0 min 0 W/m 19,3 km/h (3 Bft) 95,74 %
29.01.2020 08:16 3,6 C 3,3 C 2,8 C 91 % 1005,6 hPa 0,0 l/m 0 min 0 min 0 W/m 19,3 km/h (3 Bft) 100,00 %
29.01.2020 08:18 3,6 C 3,3 C 2,8 C 91 % 1005,5 hPa 0,0 l/m 0 min 0 min 0 W/m 32,2 km/h (5 Bft) 100,00 %
29.01.2020 08:21 3,6 C 3,3 C 2,2 C 91 % 1005,6 hPa 0,0 l/m 0 min 0 min 0 W/m 29,0 km/h (5 Bft) 98,57 %
29.01.2020 08:22 3,6 C 3,3 C 2,8 C 91 % 1005,6 hPa 0,0 l/m 0 min 0 min 0 W/m 19,3 km/h (3 Bft) 100,00 %
29.01.2020 08:24 3,6 C 3,3 C 2,8 C 91 % 1005,6 hPa 0,0 l/m 0 min 0 min 0 W/m 35,4 km/h (5 Bft) 100,00 %
29.01.2020 08:26 3,6 C 3,3 C 2,8 C 91 % 1005,6 hPa 0,0 l/m 0 min 0 min 0 W/m 19,3 km/h (3 Bft) 97,87 %
29.01.2020 08:28 3,7 C 3,3 C 2,8 C 91 % 1005,7 hPa 0,0 l/m 0 min 0 min 5 W/m 16,1 km/h (3 Bft) 97,87 %
29.01.2020 08:30 3,7 C 3,3 C 2,8 C 91 % 1005,7 hPa 0,0 l/m 0 min 0 min 7 W/m 12,9 km/h (3 Bft) 100,00 %
29.01.2020 08:32 3,7 C 3,3 C 2,8 C 91 % 1005,8 hPa 0,0 l/m 0 min 0 min 9 W/m 16,1 km/h (3 Bft) 100,00 %
29.01.2020 08:34 3,7 C 3,3 C 2,8 C 91 % 1005,8 hPa 0,0 l/m 0 min 0 min 10 W/m 19,3 km/h (3 Bft) 97,87 %
29.01.2020 08:36 3,7 C 3,3 C 2,8 C 91 % 1005,8 hPa 0,0 l/m 0 min 0 min 9 W/m 12,9 km/h (3 Bft) 100,00 %
29.01.2020 08:38 3,7 C 3,3 C 2,8 C 91 % 1005,8 hPa 0,0 l/m 0 min 0 min 10 W/m 19,3 km/h (3 Bft) 100,00 %
29.01.2020 08:40 3,7 C 3,3 C 2,8 C 91 % 1005,9 hPa 0,0 l/m 0 min 0 min 11 W/m 16,1 km/h (3 Bft) 100,00 %
29.01.2020 08:42 3,7 C 3,3 C 2,8 C 91 % 1005,8 hPa 0,0 l/m 0 min 0 min 11 W/m 12,9 km/h (3 Bft) 100,00 %
29.01.2020 08:44 3,7 C 3,3 C 2,8 C 91 % 1005,7 hPa 0,0 l/m 0 min 0 min 12 W/m 16,1 km/h (3 Bft) 97,87 %
29.01.2020 08:46 3,7 C 3,3 C 2,8 C 91 % 1005,9 hPa 0,0 l/m 0 min 0 min 13 W/m 16,1 km/h (3 Bft) 94,00 %
29.01.2020 08:48 3,7 C 3,3 C 2,8 C 91 % 1006,0 hPa 0,0 l/m 0 min 0 min 12 W/m 22,5 km/h (4 Bft) 97,83 %
29.01.2020 08:50 3,7 C 3,3 C 2,8 C 91 % 1006,1 hPa 0,0 l/m 0 min 0 min 12 W/m 29,0 km/h (5 Bft) 97,87 %
29.01.2020 08:52 3,7 C 3,3 C 2,8 C 91 % 1006,1 hPa 0,0 l/m 0 min 0 min 12 W/m 12,9 km/h (3 Bft) 97,87 %
29.01.2020 08:54 3,7 C 3,3 C 2,8 C 91 % 1006,1 hPa 0,0 l/m 0 min 0 min 12 W/m 16,1 km/h (3 Bft) 95,74 %
29.01.2020 08:56 3,8 C 3,3 C 2,8 C 91 % 1006,2 hPa 0,0 l/m 0 min 0 min 12 W/m 12,9 km/h (3 Bft) 97,87 %
29.01.2020 08:58 3,8 C 3,3 C 2,8 C 91 % 1006,1 hPa 0,0 l/m 0 min 0 min 13 W/m 19,3 km/h (3 Bft) 97,87 %
29.01.2020 09:00 3,8 C 3,3 C 2,8 C 91 % 1006,1 hPa 0,0 l/m 0 min 0 min 15 W/m 12,9 km/h (3 Bft) 97,83 %
29.01.2020 09:02 3,8 C 3,3 C 2,8 C 91 % 1006,2 hPa 0,0 l/m 0 min 0 min 18 W/m 16,1 km/h (3 Bft) 95,74 %
29.01.2020 09:04 3,8 C 3,3 C 2,8 C 91 % 1006,3 hPa 0,0 l/m 0 min 0 min 18 W/m 19,3 km/h (3 Bft) 95,74 %
29.01.2020 09:06 3,8 C 3,3 C 2,8 C 91 % 1006,2 hPa 0,0 l/m 0 min 0 min 15 W/m 9,7 km/h (2 Bft) 93,62 %
29.01.2020 09:08 3,8 C 3,3 C 2,8 C 91 % 1006,2 hPa 0,0 l/m 0 min 0 min 13 W/m 12,9 km/h (3 Bft) 95,74 %
29.01.2020 09:10 3,8 C 3,3 C 2,8 C 91 % 1006,2 hPa 0,0 l/m 0 min 0 min 13 W/m 16,1 km/h (3 Bft) 97,83 %
29.01.2020 09:12 3,8 C 3,3 C 2,8 C 90 % 1006,2 hPa 0,0 l/m 0 min 0 min 12 W/m 25,7 km/h (4 Bft) 97,87 %
29.01.2020 09:14 3,8 C 3,3 C 2,8 C 90 % 1006,2 hPa 0,0 l/m 0 min 0 min 14 W/m 19,3 km/h (3 Bft) 95,74 %
29.01.2020 09:16 3,8 C 3,3 C 2,8 C 90 % 1006,3 hPa 0,0 l/m 0 min 0 min 14 W/m 25,7 km/h (4 Bft) 95,74 %
29.01.2020 09:18 3,8 C 3,3 C 2,8 C 90 % 1006,2 hPa 0,0 l/m 0 min 0 min 19 W/m 19,3 km/h (3 Bft) 91,49 %
29.01.2020 09:20 3,8 C 3,3 C 2,8 C 90 % 1006,3 hPa 0,0 l/m 0 min 0 min 27 W/m 22,5 km/h (4 Bft) 95,74 %
29.01.2020 09:22 3,9 C 3,3 C 2,8 C 90 % 1006,3 hPa 0,0 l/m 0 min 0 min 28 W/m 22,5 km/h (4 Bft) 93,48 %
29.01.2020 09:24 3,9 C 3,3 C 2,8 C 90 % 1006,3 hPa 0,0 l/m 0 min 0 min 26 W/m 12,9 km/h (3 Bft) 91,49 %
29.01.2020 09:26 3,9 C 3,3 C 2,8 C 90 % 1006,4 hPa 0,0 l/m 0 min 0 min 25 W/m 22,5 km/h (4 Bft) 93,62 %
29.01.2020 09:28 3,9 C 3,9 C 2,8 C 90 % 1006,3 hPa 0,0 l/m 0 min 0 min 28 W/m 19,3 km/h (3 Bft) 93,62 %
29.01.2020 09:30 3,9 C 3,3 C 2,8 C 90 % 1006,3 hPa 0,0 l/m 0 min 0 min 20 W/m 19,3 km/h (3 Bft) 93,62 %
29.01.2020 09:32 4,0 C 3,3 C 2,8 C 90 % 1006,4 hPa 0,0 l/m 0 min 0 min 19 W/m 16,1 km/h (3 Bft) 89,36 %
29.01.2020 09:34 4,0 C 3,3 C 2,8 C 90 % 1006,4 hPa 0,0 l/m 0 min 0 min 20 W/m 25,7 km/h (4 Bft) 93,48 %
29.01.2020 09:36 4,0 C 3,3 C 2,8 C 90 % 1006,4 hPa 0,0 l/m 0 min 0 min 16 W/m 12,9 km/h (3 Bft) 93,62 %
29.01.2020 09:38 4,0 C 3,3 C 2,8 C 90 % 1006,4 hPa 0,0 l/m 0 min 2 min 14 W/m 9,7 km/h (2 Bft) 95,74 %
29.01.2020 09:40 4,0 C 2,8 C 2,2 C 90 % 1006,4 hPa 0,0 l/m 0 min 2 min 13 W/m 22,5 km/h (4 Bft) 95,74 %
29.01.2020 09:42 4,0 C 2,8 C 2,2 C 90 % 1006,4 hPa 0,0 l/m 0 min 2 min 15 W/m 16,1 km/h (3 Bft) 95,74 %
29.01.2020 09:44 4,0 C 2,8 C 2,2 C 90 % 1006,4 hPa 0,0 l/m 0 min 2 min 18 W/m 19,3 km/h (3 Bft) 95,74 %
29.01.2020 09:46 4,0 C 2,8 C 2,2 C 90 % 1006,4 hPa 0,0 l/m 0 min 2 min 21 W/m 12,9 km/h (3 Bft) 97,83 %
29.01.2020 09:48 4,0 C 2,8 C 2,2 C 91 % 1006,4 hPa 0,0 l/m 0 min 2 min 25 W/m 22,5 km/h (4 Bft) 97,87 %
29.01.2020 09:50 3,9 C 2,8 C 2,2 C 91 % 1006,4 hPa 0,0 l/m 0 min 2 min 35 W/m 25,7 km/h (4 Bft) 97,87 %
29.01.2020 09:52 3,9 C 2,8 C 2,2 C 91 % 1006,4 hPa 0,0 l/m 0 min 2 min 36 W/m 22,5 km/h (4 Bft) 97,87 %
29.01.2020 09:54 3,9 C 2,8 C 2,2 C 91 % 1006,5 hPa 0,0 l/m 0 min 2 min 41 W/m 19,3 km/h (3 Bft) 95,74 %
29.01.2020 09:56 3,9 C 2,8 C 2,2 C 91 % 1006,5 hPa 0,0 l/m 0 min 2 min 46 W/m 22,5 km/h (4 Bft) 97,87 %
29.01.2020 09:58 3,9 C 3,3 C 2,2 C 91 % 1006,4 hPa 0,0 l/m 0 min 0 min 47 W/m 19,3 km/h (3 Bft) 95,65 %
29.01.2020 10:00 3,9 C 3,3 C 2,2 C 91 % 1006,4 hPa 0,0 l/m 0 min 0 min 54 W/m 25,7 km/h (4 Bft) 97,87 %
29.01.2020 10:02 3,9 C 3,3 C 2,2 C 91 % 1006,5 hPa 0,0 l/m 0 min 2 min 66 W/m 16,1 km/h (3 Bft) 97,87 %
29.01.2020 10:04 3,9 C 3,3 C 2,8 C 91 % 1006,5 hPa 0,0 l/m 0 min 0 min 78 W/m 12,9 km/h (3 Bft) 97,96 %
29.01.2020 10:06 3,9 C 3,3 C 2,8 C 92 % 1006,5 hPa 0,0 l/m 0 min 2 min 65 W/m 19,3 km/h (3 Bft) 97,92 %
29.01.2020 10:08 4,0 C 3,3 C 2,8 C 92 % 1006,5 hPa 0,0 l/m 0 min 2 min 55 W/m 22,5 km/h (4 Bft) 95,65 %
29.01.2020 10:10 4,0 C 3,9 C 2,8 C 92 % 1006,5 hPa 0,0 l/m 0 min 2 min 59 W/m 25,7 km/h (4 Bft) 97,87 %
29.01.2020 10:12 4,0 C 3,9 C 2,8 C 92 % 1006,5 hPa 0,0 l/m 0 min 0 min 78 W/m 6,4 km/h (2 Bft) 97,87 %
29.01.2020 10:14 4,1 C 3,9 C 3,3 C 92 % 1006,5 hPa 0,0 l/m 0 min 0 min 94 W/m 12,9 km/h (3 Bft) 97,87 %
29.01.2020 10:16 4,1 C 3,9 C 3,3 C 92 % 1006,5 hPa 0,0 l/m 0 min 0 min 77 W/m 19,3 km/h (3 Bft) 97,87 %
29.01.2020 10:18 4,1 C 3,9 C 3,3 C 92 % 1006,5 hPa 0,0 l/m 0 min 0 min 51 W/m 25,7 km/h (4 Bft) 95,74 %
29.01.2020 10:20 4,1 C 3,9 C 3,3 C 92 % 1006,6 hPa 0,0 l/m 0 min 0 min 45 W/m 12,9 km/h (3 Bft) 97,83 %
29.01.2020 10:22 4,2 C 3,9 C 3,3 C 92 % 1006,5 hPa 0,0 l/m 0 min 0 min 49 W/m 19,3 km/h (3 Bft) 100,00 %
29.01.2020 10:24 4,2 C 3,9 C 3,3 C 92 % 1006,5 hPa 0,0 l/m 0 min 0 min 50 W/m 22,5 km/h (4 Bft) 100,00 %
29.01.2020 10:26 4,2 C 3,9 C 3,3 C 91 % 1006,5 hPa 0,0 l/m 0 min 0 min 55 W/m 19,3 km/h (3 Bft) 100,00 %
29.01.2020 10:28 4,2 C 3,9 C 3,3 C 91 % 1006,4 hPa 0,0 l/m 0 min 0 min 60 W/m 29,0 km/h (5 Bft) 100,00 %
29.01.2020 10:30 4,3 C 3,9 C 3,3 C 91 % 1006,5 hPa 0,0 l/m 0 min 0 min 70 W/m 22,5 km/h (4 Bft) 100,00 %
29.01.2020 10:32 4,3 C 3,9 C 3,3 C 91 % 1006,5 hPa 0,0 l/m 0 min 0 min 76 W/m 25,7 km/h (4 Bft) 100,00 %
29.01.2020 10:34 4,3 C 4,4 C 3,3 C 91 % 1006,6 hPa 0,0 l/m 0 min 0 min 80 W/m 29,0 km/h (5 Bft) 100,00 %
29.01.2020 10:36 4,3 C 4,4 C 3,3 C 91 % 1006,6 hPa 0,0 l/m 0 min 0 min 82 W/m 35,4 km/h (5 Bft) 100,00 %
29.01.2020 10:38 4,4 C 4,4 C 3,3 C 91 % 1006,7 hPa 0,0 l/m 0 min 0 min 77 W/m 16,1 km/h (3 Bft) 100,00 %
29.01.2020 10:40 4,4 C 4,4 C 3,9 C 91 % 1006,7 hPa 0,0 l/m 0 min 0 min 74 W/m 25,7 km/h (4 Bft) 97,87 %
29.01.2020 10:42 4,5 C 4,4 C 3,9 C 90 % 1006,7 hPa 0,0 l/m 0 min 0 min 75 W/m 41,8 km/h (6 Bft) 100,00 %
29.01.2020 10:44 4,5 C 4,4 C 3,9 C 91 % 1006,6 hPa 0,0 l/m 0 min 0 min 76 W/m 12,9 km/h (3 Bft) 100,00 %
29.01.2020 10:46 4,5 C 4,4 C 3,9 C 91 % 1006,7 hPa 0,0 l/m 0 min 0 min 82 W/m 25,7 km/h (4 Bft) 97,87 %
29.01.2020 10:48 4,6 C 4,4 C 3,9 C 91 % 1006,6 hPa 0,0 l/m 0 min 0 min 94 W/m 29,0 km/h (5 Bft) 100,00 %
29.01.2020 10:50 4,6 C 4,4 C 3,9 C 90 % 1006,6 hPa 0,0 l/m 0 min 0 min 88 W/m 22,5 km/h (4 Bft) 100,00 %
29.01.2020 10:52 4,6 C 4,4 C 3,9 C 90 % 1006,7 hPa 0,0 l/m 0 min 0 min 99 W/m 16,1 km/h (3 Bft) 100,00 %
29.01.2020 10:54 4,6 C 4,4 C 3,9 C 90 % 1006,7 hPa 0,0 l/m 0 min 0 min 108 W/m 29,0 km/h (5 Bft) 100,00 %
29.01.2020 10:56 4,6 C 4,4 C 3,9 C 90 % 1006,8 hPa 0,0 l/m 0 min 0 min 101 W/m 16,1 km/h (3 Bft) 100,00 %
29.01.2020 10:58 4,7 C 5,0 C 3,9 C 90 % 1006,8 hPa 0,0 l/m 0 min 0 min 110 W/m 19,3 km/h (3 Bft) 100,00 %
29.01.2020 11:00 4,7 C 5,0 C 3,9 C 90 % 1006,7 hPa 0,0 l/m 0 min 0 min 110 W/m 38,6 km/h (5 Bft) 100,00 %
29.01.2020 11:02 4,7 C 5,6 C 3,9 C 90 % 1006,8 hPa 0,0 l/m 2 min 0 min 179 W/m 32,2 km/h (5 Bft) 100,00 %
29.01.2020 11:04 4,7 C 5,6 C 4,4 C 90 % 1006,9 hPa 0,0 l/m 2 min 0 min 180 W/m 25,7 km/h (4 Bft) 100,00 %
29.01.2020 11:06 4,8 C 5,0 C 4,4 C 90 % 1007,0 hPa 0,0 l/m 0 min 0 min 133 W/m 12,9 km/h (3 Bft) 97,87 %
29.01.2020 11:08 4,8 C 5,0 C 4,4 C 90 % 1007,0 hPa 0,0 l/m 0 min 0 min 116 W/m 19,3 km/h (3 Bft) 97,83 %
29.01.2020 11:10 4,8 C 5,0 C 4,4 C 90 % 1007,0 hPa 0,0 l/m 0 min 0 min 107 W/m 16,1 km/h (3 Bft) 100,00 %
29.01.2020 11:12 4,9 C 5,0 C 4,4 C 89 % 1007,0 hPa 0,0 l/m 0 min 0 min 88 W/m 16,1 km/h (3 Bft) 100,00 %
29.01.2020 11:14 4,9 C 5,0 C 3,9 C 89 % 1007,1 hPa 0,0 l/m 0 min 0 min 78 W/m 12,9 km/h (3 Bft) 100,00 %
29.01.2020 11:16 4,9 C 5,0 C 3,9 C 89 % 1007,0 hPa 0,0 l/m 0 min 0 min 83 W/m 19,3 km/h (3 Bft) 100,00 %
29.01.2020 11:18 4,9 C 5,0 C 4,4 C 89 % 1007,1 hPa 0,0 l/m 0 min 0 min 133 W/m 19,3 km/h (3 Bft) 100,00 %
29.01.2020 11:20 4,9 C 5,0 C 4,4 C 89 % 1007,1 hPa 0,0 l/m 0 min 0 min 130 W/m 19,3 km/h (3 Bft) 100,00 %
29.01.2020 11:22 4,9 C 5,6 C 4,4 C 89 % 1007,1 hPa 0,0 l/m 0 min 0 min 141 W/m 22,5 km/h (4 Bft) 97,87 %
29.01.2020 11:24 5,0 C 5,6 C 4,4 C 89 % 1007,1 hPa 0,0 l/m 0 min 0 min 149 W/m 22,5 km/h (4 Bft) 97,87 %
29.01.2020 11:26 5,1 C 6,1 C 4,4 C 89 % 1007,2 hPa 0,0 l/m 2 min 0 min 183 W/m 22,5 km/h (4 Bft) 100,00 %
29.01.2020 11:28 5,1 C 5,6 C 4,4 C 89 % 1007,2 hPa 0,0 l/m 0 min 0 min 130 W/m 16,1 km/h (3 Bft) 100,00 %
29.01.2020 11:30 5,1 C 5,6 C 4,4 C 89 % 1007,2 hPa 0,0 l/m 0 min 0 min 92 W/m 16,1 km/h (3 Bft) 97,83 %
29.01.2020 11:32 5,2 C 5,6 C 4,4 C 89 % 1007,3 hPa 0,0 l/m 0 min 0 min 92 W/m 12,9 km/h (3 Bft) 100,00 %
29.01.2020 11:34 5,2 C 5,6 C 4,4 C 89 % 1007,3 hPa 0,0 l/m 0 min 0 min 113 W/m 19,3 km/h (3 Bft) 100,00 %
29.01.2020 11:36 5,2 C 5,6 C 4,4 C 89 % 1007,3 hPa 0,0 l/m 0 min 0 min 142 W/m 16,1 km/h (3 Bft) 95,74 %
29.01.2020 11:38 5,2 C 5,6 C 4,4 C 89 % 1007,4 hPa 0,0 l/m 0 min 0 min 134 W/m 19,3 km/h (3 Bft) 95,74 %
29.01.2020 11:40 5,3 C 5,6 C 4,4 C 89 % 1007,4 hPa 0,0 l/m 0 min 0 min 128 W/m 25,7 km/h (4 Bft) 97,87 %
29.01.2020 11:42 5,3 C 5,6 C 4,4 C 88 % 1007,4 hPa 0,0 l/m 0 min 0 min 104 W/m 12,9 km/h (3 Bft) 97,83 %
29.01.2020 11:44 5,3 C 5,6 C 4,4 C 88 % 1007,4 hPa 0,0 l/m 0 min 0 min 101 W/m 22,5 km/h (4 Bft) 97,87 %
29.01.2020 11:46 5,3 C 5,6 C 4,4 C 88 % 1007,4 hPa 0,0 l/m 0 min 0 min 114 W/m 22,5 km/h (4 Bft) 97,87 %
29.01.2020 11:48 5,3 C 5,6 C 4,4 C 88 % 1007,3 hPa 0,0 l/m 0 min 0 min 106 W/m 22,5 km/h (4 Bft) 95,74 %
29.01.2020 11:50 5,3 C 5,6 C 4,4 C 88 % 1007,4 hPa 0,0 l/m 0 min 0 min 104 W/m 22,5 km/h (4 Bft) 97,87 %
29.01.2020 11:52 5,3 C 5,6 C 4,4 C 88 % 1007,5 hPa 0,0 l/m 0 min 0 min 89 W/m 25,7 km/h (4 Bft) 93,62 %
29.01.2020 11:54 5,3 C 5,6 C 4,4 C 88 % 1007,4 hPa 0,0 l/m 0 min 0 min 90 W/m 19,3 km/h (3 Bft) 93,48 %
29.01.2020 11:56 5,3 C 5,6 C 4,4 C 87 % 1007,5 hPa 0,0 l/m 0 min 0 min 96 W/m 16,1 km/h (3 Bft) 95,74 %
29.01.2020 11:58 5,4 C 5,6 C 4,4 C 87 % 1007,6 hPa 0,0 l/m 0 min 0 min 161 W/m 16,1 km/h (3 Bft) 95,74 %
29.01.2020 12:00 5,4 C 6,1 C 5,0 C 87 % 1007,5 hPa 0,0 l/m 0 min 0 min 168 W/m 19,3 km/h (3 Bft) 95,74 %
29.01.2020 12:02 5,4 C 6,7 C 5,0 C 87 % 1007,5 hPa 0,0 l/m 0 min 0 min 176 W/m 12,9 km/h (3 Bft) 91,49 %
29.01.2020 12:04 5,5 C 6,7 C 5,0 C 87 % 1007,6 hPa 0,0 l/m 0 min 0 min 156 W/m 12,9 km/h (3 Bft) 95,74 %
29.01.2020 12:06 5,5 C 7,2 C 5,0 C 87 % 1007,6 hPa 0,0 l/m 0 min 0 min 177 W/m 19,3 km/h (3 Bft) 95,65 %
29.01.2020 12:08 5,6 C 7,8 C 5,0 C 87 % 1007,6 hPa 0,0 l/m 2 min 0 min 257 W/m 22,5 km/h (4 Bft) 93,62 %
29.01.2020 12:10 5,6 C 6,7 C 5,0 C 87 % 1007,6 hPa 0,0 l/m 0 min 0 min 187 W/m 19,3 km/h (3 Bft) 93,62 %
29.01.2020 12:12 5,7 C 6,1 C 5,0 C 86 % 1007,6 hPa 0,0 l/m 0 min 0 min 122 W/m 19,3 km/h (3 Bft) 95,74 %
29.01.2020 12:14 5,7 C 6,1 C 5,0 C 86 % 1007,6 hPa 0,0 l/m 0 min 0 min 135 W/m 41,8 km/h (6 Bft) 97,87 %
29.01.2020 12:16 5,7 C 6,1 C 5,0 C 86 % 1007,6 hPa 0,0 l/m 0 min 0 min 123 W/m 25,7 km/h (4 Bft) 97,83 %
29.01.2020 12:18 5,7 C 6,1 C 5,0 C 86 % 1007,7 hPa 0,0 l/m 0 min 0 min 102 W/m 16,1 km/h (3 Bft) 95,74 %
29.01.2020 12:20 5,7 C 6,1 C 5,0 C 86 % 1007,6 hPa 0,0 l/m 0 min 0 min 110 W/m 16,1 km/h (3 Bft) 97,87 %
29.01.2020 12:22 5,7 C 5,6 C 5,0 C 86 % 1007,7 hPa 0,0 l/m 0 min 0 min 106 W/m 19,3 km/h (3 Bft) 95,74 %
29.01.2020 12:24 5,7 C 5,6 C 5,0 C 85 % 1007,7 hPa 0,0 l/m 0 min 0 min 102 W/m 16,1 km/h (3 Bft) 95,74 %
29.01.2020 12:26 5,7 C 5,6 C 5,0 C 85 % 1007,7 hPa 0,0 l/m 0 min 0 min 110 W/m 19,3 km/h (3 Bft) 54,35 %
29.01.2020 12:28 5,7 C 5,6 C 5,0 C 85 % 1007,7 hPa 0,0 l/m 0 min 0 min 101 W/m 12,9 km/h (3 Bft) 95,65 %
29.01.2020 12:30 5,7 C 6,1 C 5,0 C 85 % 1007,7 hPa 0,0 l/m 0 min 0 min 115 W/m 16,1 km/h (3 Bft) 95,74 %
29.01.2020 12:32 5,7 C 6,1 C 5,6 C 85 % 1007,7 hPa 0,0 l/m 0 min 0 min 126 W/m 22,5 km/h (4 Bft) 95,74 %
29.01.2020 12:34 5,8 C 6,1 C 5,6 C 85 % 1007,7 hPa 0,0 l/m 0 min 0 min 120 W/m 16,1 km/h (3 Bft) 95,74 %
29.01.2020 12:36 5,8 C 6,1 C 5,6 C 85 % 1007,8 hPa 0,0 l/m 0 min 0 min 93 W/m 16,1 km/h (3 Bft) 95,74 %
29.01.2020 12:38 5,8 C 5,6 C 5,6 C 85 % 1007,7 hPa 0,0 l/m 0 min 0 min 83 W/m 16,1 km/h (3 Bft) 95,74 %
29.01.2020 12:40 5,8 C 5,6 C 5,6 C 85 % 1007,8 hPa 0,0 l/m 0 min 0 min 77 W/m 12,9 km/h (3 Bft) 89,13 %
29.01.2020 12:42 5,8 C 5,6 C 5,6 C 85 % 1007,8 hPa 0,0 l/m 0 min 0 min 77 W/m 12,9 km/h (3 Bft) 95,74 %
29.01.2020 12:44 5,8 C 5,6 C 5,6 C 85 % 1007,8 hPa 0,0 l/m 0 min 0 min 69 W/m 12,9 km/h (3 Bft) 93,62 %
29.01.2020 12:46 5,9 C 6,1 C 5,6 C 85 % 1007,8 hPa 0,0 l/m 0 min 0 min 121 W/m 12,9 km/h (3 Bft) 95,74 %
29.01.2020 12:48 5,9 C 6,1 C 5,6 C 85 % 1007,8 hPa 0,0 l/m 0 min 0 min 164 W/m 12,9 km/h (3 Bft) 95,74 %
29.01.2020 12:50 5,9 C 6,1 C 6,1 C 85 % 1007,8 hPa 0,0 l/m 0 min 0 min 165 W/m 16,1 km/h (3 Bft) 93,62 %
29.01.2020 12:52 5,9 C 6,1 C 5,6 C 85 % 1007,8 hPa 0,0 l/m 0 min 0 min 124 W/m 22,5 km/h (4 Bft) 95,65 %
29.01.2020 12:54 6,0 C 6,1 C 5,6 C 84 % 1007,9 hPa 0,0 l/m 0 min 0 min 123 W/m 16,1 km/h (3 Bft) 97,87 %
29.01.2020 12:56 6,0 C 7,2 C 6,1 C 84 % 1007,8 hPa 0,0 l/m 0 min 0 min 190 W/m 16,1 km/h (3 Bft) 97,87 %
29.01.2020 12:58 6,1 C 7,2 C 6,1 C 84 % 1007,8 hPa 0,0 l/m 2 min 0 min 212 W/m 19,3 km/h (3 Bft) 95,74 %
29.01.2020 13:00 6,1 C 7,2 C 6,1 C 84 % 1007,8 hPa 0,0 l/m 0 min 0 min 172 W/m 12,9 km/h (3 Bft) 97,87 %
29.01.2020 13:02 6,1 C 6,7 C 6,1 C 84 % 1007,8 hPa 0,0 l/m 0 min 0 min 160 W/m 22,5 km/h (4 Bft) 95,74 %
29.01.2020 13:04 6,2 C 6,7 C 6,1 C 84 % 1007,9 hPa 0,0 l/m 0 min 0 min 183 W/m 29,0 km/h (5 Bft) 95,65 %
29.01.2020 13:06 6,2 C 6,7 C 6,1 C 83 % 1007,7 hPa 0,0 l/m 0 min 0 min 150 W/m 25,7 km/h (4 Bft) 97,87 %
29.01.2020 13:08 6,2 C 6,7 C 5,6 C 83 % 1007,7 hPa 0,0 l/m 0 min 0 min 136 W/m 19,3 km/h (3 Bft) 97,87 %
29.01.2020 13:10 6,2 C 6,1 C 5,6 C 83 % 1007,8 hPa 0,0 l/m 0 min 0 min 135 W/m 25,7 km/h (4 Bft) 97,87 %
29.01.2020 13:12 6,2 C 6,1 C 5,6 C 82 % 1007,8 hPa 0,0 l/m 0 min 0 min 133 W/m 25,7 km/h (4 Bft) 97,87 %
29.01.2020 13:14 6,2 C 6,1 C 5,6 C 82 % 1007,7 hPa 0,0 l/m 0 min 0 min 134 W/m 19,3 km/h (3 Bft) 97,83 %
29.01.2020 13:16 6,2 C 6,1 C 5,6 C 82 % 1007,8 hPa 0,0 l/m 0 min 0 min 128 W/m 19,3 km/h (3 Bft) 100,00 %
29.01.2020 13:18 6,2 C 6,1 C 5,6 C 82 % 1007,8 hPa 0,0 l/m 0 min 0 min 133 W/m 12,9 km/h (3 Bft) 100,00 %
29.01.2020 13:20 6,2 C 6,1 C 5,6 C 82 % 1007,8 hPa 0,0 l/m 0 min 0 min 130 W/m 16,1 km/h (3 Bft) 100,00 %
29.01.2020 13:22 6,2 C 6,1 C 5,6 C 83 % 1007,9 hPa 0,0 l/m 0 min 0 min 115 W/m 29,0 km/h (5 Bft) 100,00 %
29.01.2020 13:24 6,2 C 6,1 C 5,6 C 83 % 1007,9 hPa 0,0 l/m 0 min 0 min 134 W/m 22,5 km/h (4 Bft) 97,87 %
29.01.2020 13:26 6,2 C 6,1 C 5,6 C 83 % 1007,9 hPa 0,0 l/m 0 min 0 min 121 W/m 16,1 km/h (3 Bft) 97,83 %
29.01.2020 13:28 6,2 C 6,1 C 5,6 C 83 % 1007,9 hPa 0,0 l/m 0 min 0 min 90 W/m 16,1 km/h (3 Bft) 100,00 %
29.01.2020 13:30 6,2 C 6,1 C 5,6 C 83 % 1008,0 hPa 0,0 l/m 0 min 0 min 80 W/m 12,9 km/h (3 Bft) 100,00 %
29.01.2020 13:32 6,2 C 6,1 C 5,6 C 83 % 1007,9 hPa 0,0 l/m 0 min 0 min 99 W/m 16,1 km/h (3 Bft) 100,00 %
29.01.2020 13:34 6,2 C 6,1 C 5,6 C 83 % 1008,0 hPa 0,0 l/m 0 min 0 min 109 W/m 16,1 km/h (3 Bft) 100,00 %
29.01.2020 13:36 6,2 C 6,1 C 5,6 C 83 % 1008,0 hPa 0,0 l/m 0 min 0 min 114 W/m 16,1 km/h (3 Bft) 100,00 %
29.01.2020 13:38 6,2 C 6,1 C 5,6 C 83 % 1008,0 hPa 0,0 l/m 0 min 0 min 98 W/m 16,1 km/h (3 Bft) 100,00 %
29.01.2020 13:40 6,2 C 6,1 C 5,6 C 83 % 1007,9 hPa 0,0 l/m 0 min 0 min 70 W/m 16,1 km/h (3 Bft) 97,83 %
29.01.2020 13:42 6,2 C 5,6 C 5,6 C 83 % 1008,0 hPa 0,0 l/m 0 min 0 min 40 W/m 16,1 km/h (3 Bft) 97,87 %
29.01.2020 13:44 6,2 C 5,6 C 5,6 C 83 % 1008,0 hPa 0,0 l/m 0 min 0 min 40 W/m 25,7 km/h (4 Bft) 100,00 %
29.01.2020 13:46 6,2 C 5,6 C 5,6 C 83 % 1008,0 hPa 0,0 l/m 0 min 0 min 58 W/m 16,1 km/h (3 Bft) 100,00 %
29.01.2020 13:48 6,2 C 5,6 C 5,6 C 83 % 1008,1 hPa 0,0 l/m 0 min 0 min 70 W/m 16,1 km/h (3 Bft) 100,00 %
29.01.2020 13:50 6,2 C 5,6 C 5,6 C 83 % 1008,1 hPa 0,0 l/m 0 min 0 min 73 W/m 25,7 km/h (4 Bft) 100,00 %
29.01.2020 13:52 6,2 C 6,1 C 5,6 C 83 % 1008,1 hPa 0,0 l/m 0 min 0 min 120 W/m 19,3 km/h (3 Bft) 100,00 %
29.01.2020 13:54 6,1 C 6,1 C 5,6 C 83 % 1008,1 hPa 0,0 l/m 0 min 0 min 143 W/m 25,7 km/h (4 Bft) 97,87 %
29.01.2020 13:56 6,2 C 6,1 C 5,6 C 83 % 1008,1 hPa 0,0 l/m 0 min 0 min 88 W/m 16,1 km/h (3 Bft) 100,00 %
29.01.2020 13:58 6,2 C 6,1 C 5,6 C 82 % 1008,2 hPa 0,0 l/m 0 min 0 min 62 W/m 25,7 km/h (4 Bft) 95,74 %
29.01.2020 14:00 6,2 C 5,6 C 5,0 C 82 % 1008,2 hPa 0,0 l/m 0 min 0 min 42 W/m 12,9 km/h (3 Bft) 95,74 %
29.01.2020 14:02 6,1 C 5,6 C 5,0 C 82 % 1008,2 hPa 0,0 l/m 0 min 0 min 30 W/m 22,5 km/h (4 Bft) 95,65 %
29.01.2020 14:04 6,1 C 5,6 C 5,0 C 82 % 1008,4 hPa 0,0 l/m 0 min 0 min 27 W/m 25,7 km/h (4 Bft) 97,87 %
29.01.2020 14:06 6,1 C 5,0 C 4,4 C 83 % 1008,5 hPa 0,0 l/m 0 min 2 min 64 W/m 25,7 km/h (4 Bft) 97,87 %
29.01.2020 14:08 6,1 C 4,4 C 3,9 C 83 % 1008,5 hPa 0,0 l/m 0 min 2 min 93 W/m 16,1 km/h (3 Bft) 97,87 %
29.01.2020 14:10 6,1 C 5,6 C 3,9 C 84 % 1008,5 hPa 0,0 l/m 0 min 2 min 107 W/m 12,9 km/h (3 Bft) 97,87 %
29.01.2020 14:12 6,0 C 5,6 C 3,9 C 85 % 1008,6 hPa 0,0 l/m 0 min 2 min 107 W/m 12,9 km/h (3 Bft) 95,74 %
29.01.2020 14:14 5,9 C 5,0 C 3,9 C 85 % 1008,5 hPa 0,0 l/m 0 min 2 min 61 W/m 16,1 km/h (3 Bft) 95,65 %
29.01.2020 14:16 5,9 C 5,0 C 3,9 C 86 % 1008,6 hPa 0,0 l/m 0 min 2 min 54 W/m 12,9 km/h (3 Bft) 97,87 %
29.01.2020 14:18 5,9 C 5,0 C 3,9 C 86 % 1008,5 hPa 0,0 l/m 0 min 0 min 63 W/m 9,7 km/h (2 Bft) 97,87 %
29.01.2020 14:20 5,8 C 5,0 C 3,9 C 86 % 1008,5 hPa 0,0 l/m 0 min 2 min 67 W/m 16,1 km/h (3 Bft) 97,87 %
29.01.2020 14:22 5,8 C 5,0 C 4,4 C 86 % 1008,5 hPa 0,0 l/m 0 min 2 min 57 W/m 12,9 km/h (3 Bft) 97,87 %
29.01.2020 14:24 5,7 C 5,0 C 4,4 C 86 % 1008,5 hPa 0,0 l/m 0 min 2 min 59 W/m 16,1 km/h (3 Bft) 95,74 %
29.01.2020 14:26 5,7 C 5,0 C 4,4 C 86 % 1008,6 hPa 0,0 l/m 0 min 2 min 43 W/m 25,7 km/h (4 Bft) 97,83 %
29.01.2020 14:28 5,7 C 5,0 C 3,9 C 86 % 1008,8 hPa 0,0 l/m 0 min 2 min 20 W/m 22,5 km/h (4 Bft) 95,74 %
29.01.2020 14:30 5,6 C 4,4 C 3,3 C 86 % 1009,0 hPa 0,2 l/m 0 min 2 min 38 W/m 25,7 km/h (4 Bft) 97,87 %
29.01.2020 14:32 5,6 C 3,3 C 2,8 C 87 % 1008,8 hPa 0,2 l/m 0 min 2 min 86 W/m 32,2 km/h (5 Bft) 95,74 %
29.01.2020 14:34 5,5 C 5,0 C 2,8 C 87 % 1008,7 hPa 0,0 l/m 2 min 2 min 180 W/m 19,3 km/h (3 Bft) 97,87 %
29.01.2020 14:36 5,4 C 6,1 C 3,3 C 87 % 1008,8 hPa 0,0 l/m 2 min 2 min 281 W/m 25,7 km/h (4 Bft) 97,83 %
29.01.2020 14:38 5,4 C 6,1 C 3,3 C 88 % 1008,8 hPa 0,0 l/m 2 min 0 min 285 W/m 32,2 km/h (5 Bft) 97,87 %
29.01.2020 14:40 5,4 C 6,7 C 3,9 C 88 % 1008,8 hPa 0,0 l/m 2 min 0 min 285 W/m 16,1 km/h (3 Bft) 97,87 %
29.01.2020 14:42 5,5 C 7,2 C 3,9 C 89 % 1008,7 hPa 0,0 l/m 2 min 0 min 268 W/m 12,9 km/h (3 Bft) 95,74 %
29.01.2020 14:44 5,6 C 7,8 C 3,9 C 89 % 1008,7 hPa 0,0 l/m 2 min 0 min 260 W/m 25,7 km/h (4 Bft) 100,00 %
29.01.2020 14:46 5,6 C 7,2 C 3,9 C 89 % 1008,7 hPa 0,0 l/m 2 min 0 min 256 W/m 16,1 km/h (3 Bft) 100,00 %
29.01.2020 14:48 5,7 C 7,2 C 3,9 C 89 % 1008,7 hPa 0,0 l/m 2 min 0 min 254 W/m 32,2 km/h (5 Bft) 100,00 %
29.01.2020 14:50 5,7 C 7,2 C 3,9 C 90 % 1008,7 hPa 0,0 l/m 2 min 0 min 252 W/m 29,0 km/h (5 Bft) 100,00 %
29.01.2020 14:52 5,8 C 7,8 C 3,9 C 89 % 1008,9 hPa 0,0 l/m 2 min 0 min 255 W/m 16,1 km/h (3 Bft) 100,00 %
29.01.2020 14:54 5,8 C 7,2 C 3,9 C 89 % 1008,9 hPa 0,0 l/m 2 min 0 min 271 W/m 19,3 km/h (3 Bft) 100,00 %
29.01.2020 14:56 5,9 C 7,2 C 4,4 C 89 % 1008,9 hPa 0,0 l/m 2 min 0 min 288 W/m 25,7 km/h (4 Bft) 100,00 %
29.01.2020 14:58 5,9 C 7,2 C 4,4 C 89 % 1008,9 hPa 0,0 l/m 2 min 0 min 277 W/m 19,3 km/h (3 Bft) 100,00 %
29.01.2020 15:00 6,0 C 7,2 C 4,4 C 89 % 1008,9 hPa 0,0 l/m 2 min 0 min 250 W/m 19,3 km/h (3 Bft) 100,00 %
29.01.2020 15:02 6,1 C 7,8 C 4,4 C 89 % 1009,0 hPa 0,0 l/m 2 min 0 min 253 W/m 19,3 km/h (3 Bft) 97,87 %
29.01.2020 15:04 6,1 C 7,8 C 4,4 C 89 % 1008,9 hPa 0,0 l/m 2 min 0 min 281 W/m 19,3 km/h (3 Bft) 97,87 %
29.01.2020 15:06 6,1 C 7,8 C 4,4 C 88 % 1009,1 hPa 0,0 l/m 2 min 0 min 294 W/m 19,3 km/h (3 Bft) 95,74 %
29.01.2020 15:08 6,2 C 7,8 C 4,4 C 88 % 1009,2 hPa 0,0 l/m 2 min 0 min 286 W/m 32,2 km/h (5 Bft) 100,00 %
29.01.2020 15:10 6,3 C 7,8 C 4,4 C 88 % 1009,1 hPa 0,0 l/m 2 min 0 min 247 W/m 19,3 km/h (3 Bft) 100,00 %
29.01.2020 15:12 6,3 C 7,8 C 4,4 C 87 % 1009,2 hPa 0,0 l/m 2 min 0 min 226 W/m 19,3 km/h (3 Bft) 95,65 %
29.01.2020 15:14 6,3 C 7,8 C 4,4 C 87 % 1009,2 hPa 0,0 l/m 2 min 0 min 223 W/m 16,1 km/h (3 Bft) 100,00 %
29.01.2020 15:16 6,3 C 7,8 C 4,4 C 87 % 1009,3 hPa 0,0 l/m 2 min 0 min 197 W/m 12,9 km/h (3 Bft) 97,87 %
29.01.2020 15:18 6,3 C 6,7 C 4,4 C 87 % 1009,3 hPa 0,0 l/m 2 min 0 min 187 W/m 9,7 km/h (2 Bft) 100,00 %
29.01.2020 15:20 6,3 C 5,6 C 3,9 C 86 % 1009,3 hPa 0,0 l/m 2 min 0 min 146 W/m 22,5 km/h (4 Bft) 95,74 %
29.01.2020 15:22 6,2 C 5,6 C 3,9 C 86 % 1009,4 hPa 0,0 l/m 2 min 0 min 163 W/m 19,3 km/h (3 Bft) 95,74 %
29.01.2020 15:24 6,2 C 5,0 C 3,9 C 86 % 1009,4 hPa 0,0 l/m 2 min 0 min 157 W/m 16,1 km/h (3 Bft) 97,83 %
29.01.2020 15:26 6,2 C 5,0 C 3,9 C 86 % 1009,4 hPa 0,0 l/m 0 min 0 min 118 W/m 16,1 km/h (3 Bft) 95,74 %
29.01.2020 15:28 6,1 C 5,0 C 3,9 C 86 % 1009,4 hPa 0,0 l/m 0 min 0 min 90 W/m 16,1 km/h (3 Bft) 93,62 %
29.01.2020 15:30 6,1 C 5,0 C 3,9 C 86 % 1009,3 hPa 0,0 l/m 0 min 0 min 91 W/m 19,3 km/h (3 Bft) 95,74 %
29.01.2020 15:32 6,1 C 5,0 C 3,9 C 86 % 1009,3 hPa 0,0 l/m 0 min 0 min 68 W/m 12,9 km/h (3 Bft) 93,62 %
29.01.2020 15:34 6,1 C 5,0 C 3,9 C 86 % 1009,4 hPa 0,0 l/m 0 min 0 min 69 W/m 19,3 km/h (3 Bft) 95,74 %
29.01.2020 15:36 6,0 C 5,0 C 3,9 C 86 % 1009,4 hPa 0,0 l/m 0 min 0 min 63 W/m 25,7 km/h (4 Bft) 93,48 %
29.01.2020 15:38 5,9 C 5,0 C 3,9 C 86 % 1009,4 hPa 0,0 l/m 0 min 0 min 56 W/m 25,7 km/h (4 Bft) 93,62 %
29.01.2020 15:40 5,9 C 5,0 C 3,9 C 86 % 1009,4 hPa 0,0 l/m 0 min 0 min 57 W/m 16,1 km/h (3 Bft) 93,62 %
29.01.2020 15:42 5,9 C 5,0 C 3,9 C 86 % 1009,4 hPa 0,0 l/m 0 min 0 min 61 W/m 16,1 km/h (3 Bft) 93,62 %
29.01.2020 15:44 5,8 C 5,0 C 3,9 C 86 % 1009,4 hPa 0,0 l/m 0 min 0 min 60 W/m 19,3 km/h (3 Bft) 93,62 %
29.01.2020 15:46 5,8 C 5,0 C 3,9 C 86 % 1009,5 hPa 0,0 l/m 0 min 0 min 55 W/m 32,2 km/h (5 Bft) 95,65 %
29.01.2020 15:48 5,8 C 5,0 C 3,9 C 86 % 1009,7 hPa 0,0 l/m 0 min 0 min 67 W/m 25,7 km/h (4 Bft) 93,62 %
29.01.2020 15:50 5,7 C 5,6 C 4,4 C 86 % 1009,8 hPa 0,0 l/m 2 min 2 min 102 W/m 32,2 km/h (5 Bft) 95,74 %
29.01.2020 15:52 5,8 C 5,6 C 4,4 C 86 % 1009,8 hPa 0,0 l/m 2 min 2 min 145 W/m 19,3 km/h (3 Bft) 93,62 %
29.01.2020 15:54 5,8 C 5,6 C 4,4 C 86 % 1009,9 hPa 0,0 l/m 2 min 2 min 123 W/m 12,9 km/h (3 Bft) 95,74 %
29.01.2020 15:56 5,8 C 5,6 C 4,4 C 87 % 1009,9 hPa 0,0 l/m 2 min 2 min 96 W/m 9,7 km/h (2 Bft) 93,62 %
29.01.2020 15:58 5,8 C 5,6 C 4,4 C 87 % 1010,0 hPa 0,0 l/m 2 min 2 min 99 W/m 9,7 km/h (2 Bft) 95,65 %
29.01.2020 16:00 5,8 C 5,6 C 4,4 C 87 % 1009,9 hPa 0,0 l/m 2 min 0 min 108 W/m 16,1 km/h (3 Bft) 93,62 %
29.01.2020 16:02 5,8 C 6,1 C 4,4 C 87 % 1010,1 hPa 0,0 l/m 2 min 0 min 120 W/m 9,7 km/h (2 Bft) 93,62 %
29.01.2020 16:04 5,8 C 6,1 C 4,4 C 87 % 1010,2 hPa 0,0 l/m 2 min 0 min 115 W/m 9,7 km/h (2 Bft) 97,87 %
29.01.2020 16:06 5,9 C 6,1 C 4,4 C 87 % 1010,2 hPa 0,0 l/m 2 min 0 min 92 W/m 9,7 km/h (2 Bft) 97,87 %
29.01.2020 16:08 5,9 C 6,1 C 4,4 C 87 % 1010,2 hPa 0,0 l/m 2 min 0 min 79 W/m 12,9 km/h (3 Bft) 97,87 %
29.01.2020 16:10 5,9 C 6,1 C 4,4 C 87 % 1010,3 hPa 0,0 l/m 2 min 0 min 83 W/m 16,1 km/h (3 Bft) 97,83 %
29.01.2020 16:12 5,9 C 6,1 C 4,4 C 87 % 1010,3 hPa 0,0 l/m 2 min 0 min 84 W/m 16,1 km/h (3 Bft) 100,00 %
29.01.2020 16:14 5,9 C 6,1 C 4,4 C 87 % 1010,2 hPa 0,0 l/m 2 min 0 min 75 W/m 25,7 km/h (4 Bft) 100,00 %
29.01.2020 16:16 5,9 C 5,6 C 4,4 C 87 % 1010,3 hPa 0,0 l/m 0 min 0 min 64 W/m 16,1 km/h (3 Bft) 100,00 %
29.01.2020 16:18 5,9 C 5,6 C 4,4 C 87 % 1010,4 hPa 0,0 l/m 0 min 0 min 41 W/m 9,7 km/h (2 Bft) 100,00 %
29.01.2020 16:20 5,9 C 5,6 C 4,4 C 87 % 1010,4 hPa 0,0 l/m 0 min 0 min 43 W/m 9,7 km/h (2 Bft) 100,00 %
29.01.2020 16:22 5,9 C 5,6 C 4,4 C 87 % 1010,5 hPa 0,0 l/m 0 min 0 min 58 W/m 12,9 km/h (3 Bft) 100,00 %
29.01.2020 16:24 5,9 C 5,6 C 4,4 C 87 % 1010,4 hPa 0,0 l/m 2 min 0 min 62 W/m 16,1 km/h (3 Bft) 100,00 %
29.01.2020 16:26 5,9 C 5,6 C 4,4 C 87 % 1010,5 hPa 0,0 l/m 0 min 0 min 55 W/m 12,9 km/h (3 Bft) 100,00 %
29.01.2020 16:28 5,9 C 5,6 C 4,4 C 87 % 1010,6 hPa 0,0 l/m 0 min 0 min 43 W/m 9,7 km/h (2 Bft) 95,74 %
29.01.2020 16:30 5,9 C 5,6 C 4,4 C 87 % 1010,5 hPa 0,0 l/m 0 min 0 min 33 W/m 3,2 km/h (1 Bft) 95,74 %
29.01.2020 16:32 5,9 C 5,6 C 4,4 C 87 % 1010,5 hPa 0,0 l/m 0 min 0 min 27 W/m 9,7 km/h (2 Bft) 95,74 %
29.01.2020 16:34 5,9 C 5,6 C 4,4 C 87 % 1010,5 hPa 0,0 l/m 0 min 0 min 31 W/m 6,4 km/h (2 Bft) 97,83 %
29.01.2020 16:36 5,9 C 5,6 C 4,4 C 87 % 1010,5 hPa 0,0 l/m 2 min 0 min 46 W/m 6,4 km/h (2 Bft) 97,87 %
29.01.2020 16:38 5,9 C 5,6 C 4,4 C 87 % 1010,5 hPa 0,0 l/m 0 min 0 min 43 W/m 6,4 km/h (2 Bft) 95,74 %
29.01.2020 16:40 5,9 C 5,6 C 4,4 C 87 % 1010,5 hPa 0,0 l/m 0 min 0 min 26 W/m 9,7 km/h (2 Bft) 97,87 %
29.01.2020 16:42 5,9 C 5,0 C 4,4 C 87 % 1010,4 hPa 0,0 l/m 0 min 0 min 19 W/m 16,1 km/h (3 Bft) 97,87 %
29.01.2020 16:44 5,9 C 5,0 C 4,4 C 87 % 1010,6 hPa 0,0 l/m 0 min 0 min 18 W/m 12,9 km/h (3 Bft) 97,87 %
29.01.2020 16:46 5,8 C 5,0 C 4,4 C 87 % 1010,6 hPa 0,0 l/m 0 min 0 min 14 W/m 9,7 km/h (2 Bft) 97,83 %
29.01.2020 16:48 5,8 C 5,0 C 4,4 C 87 % 1010,6 hPa 0,0 l/m 0 min 0 min 10 W/m 9,7 km/h (2 Bft) 97,87 %
29.01.2020 16:50 5,8 C 5,0 C 4,4 C 87 % 1010,5 hPa 0,0 l/m 0 min 0 min 9 W/m 9,7 km/h (2 Bft) 95,74 %
29.01.2020 16:52 5,8 C 5,0 C 4,4 C 87 % 1010,5 hPa 0,0 l/m 0 min 0 min 10 W/m 9,7 km/h (2 Bft) 93,62 %
29.01.2020 16:54 5,8 C 5,0 C 4,4 C 86 % 1010,6 hPa 0,0 l/m 0 min 0 min 11 W/m 9,7 km/h (2 Bft) 95,74 %
29.01.2020 16:56 5,7 C 5,0 C 4,4 C 86 % 1010,6 hPa 0,0 l/m 0 min 0 min 11 W/m 6,4 km/h (2 Bft) 97,83 %
29.01.2020 16:58 5,7 C 5,0 C 4,4 C 87 % 1010,6 hPa 0,0 l/m 0 min 0 min 9 W/m 9,7 km/h (2 Bft) 97,87 %
29.01.2020 17:00 5,7 C 5,0 C 4,4 C 86 % 1010,6 hPa 0,0 l/m 0 min 0 min 9 W/m 9,7 km/h (2 Bft) 97,87 %
29.01.2020 17:02 5,7 C 5,0 C 4,4 C 86 % 1010,7 hPa 0,0 l/m 0 min 0 min 7 W/m 12,9 km/h (3 Bft) 97,87 %
29.01.2020 17:04 5,7 C 5,0 C 4,4 C 86 % 1010,7 hPa 0,0 l/m 0 min 0 min 5 W/m 22,5 km/h (4 Bft) 97,87 %
29.01.2020 17:06 5,7 C 5,0 C 4,4 C 86 % 1010,8 hPa 0,0 l/m 0 min 0 min 5 W/m 9,7 km/h (2 Bft) 97,87 %
29.01.2020 17:08 5,7 C 5,0 C 4,4 C 86 % 1010,8 hPa 0,0 l/m 0 min 0 min 2 W/m 9,7 km/h (2 Bft) 95,65 %
29.01.2020 17:10 5,7 C 5,0 C 4,4 C 86 % 1010,8 hPa 0,0 l/m 0 min 0 min 0 W/m 12,9 km/h (3 Bft) 95,74 %
29.01.2020 17:12 5,7 C 5,0 C 4,4 C 86 % 1010,9 hPa 0,0 l/m 0 min 0 min 0 W/m 9,7 km/h (2 Bft) 97,87 %
29.01.2020 17:14 5,7 C 5,0 C 4,4 C 86 % 1011,0 hPa 0,0 l/m 0 min 0 min 0 W/m 16,1 km/h (3 Bft) 97,87 %
29.01.2020 17:16 5,7 C 5,0 C 4,4 C 86 % 1011,0 hPa 0,0 l/m 0 min 0 min 0 W/m 16,1 km/h (3 Bft) 100,00 %
29.01.2020 17:18 5,7 C 5,0 C 4,4 C 86 % 1011,0 hPa 0,0 l/m 0 min 0 min 0 W/m 12,9 km/h (3 Bft) 100,00 %
29.01.2020 17:20 5,7 C 5,0 C 4,4 C 86 % 1011,1 hPa 0,0 l/m 0 min 0 min 0 W/m 12,9 km/h (3 Bft) 100,00 %
29.01.2020 17:22 5,7 C 5,0 C 4,4 C 86 % 1011,1 hPa 0,0 l/m 0 min 0 min 0 W/m 6,4 km/h (2 Bft) 100,00 %
29.01.2020 17:24 5,7 C 5,0 C 4,4 C 86 % 1011,1 hPa 0,0 l/m 0 min 0 min 0 W/m 12,9 km/h (3 Bft) 100,00 %
29.01.2020 17:26 5,7 C 5,0 C 4,4 C 86 % 1011,1 hPa 0,0 l/m 0 min 0 min 0 W/m 6,4 km/h (2 Bft) 100,00 %
29.01.2020 17:28 5,7 C 5,0 C 4,4 C 86 % 1011,1 hPa 0,0 l/m 0 min 0 min 0 W/m 16,1 km/h (3 Bft) 100,00 %
29.01.2020 17:30 5,7 C 5,0 C 4,4 C 86 % 1011,2 hPa 0,0 l/m 0 min 0 min 0 W/m 19,3 km/h (3 Bft) 100,00 %
29.01.2020 17:32 5,7 C 5,0 C 4,4 C 86 % 1011,2 hPa 0,0 l/m 0 min 0 min 0 W/m 12,9 km/h (3 Bft) 100,00 %
29.01.2020 17:34 5,7 C 5,0 C 4,4 C 86 % 1011,2 hPa 0,0 l/m 0 min 0 min 0 W/m 12,9 km/h (3 Bft) 100,00 %
29.01.2020 17:36 5,7 C 5,0 C 4,4 C 86 % 1011,2 hPa 0,0 l/m 0 min 0 min 0 W/m 16,1 km/h (3 Bft) 100,00 %
29.01.2020 17:38 5,7 C 5,0 C 4,4 C 86 % 1011,3 hPa 0,0 l/m 0 min 0 min 0 W/m 12,9 km/h (3 Bft) 100,00 %
29.01.2020 17:40 5,7 C 5,0 C 4,4 C 86 % 1011,3 hPa 0,0 l/m 0 min 0 min 0 W/m 12,9 km/h (3 Bft) 100,00 %
29.01.2020 17:42 5,7 C 5,0 C 4,4 C 86 % 1011,4 hPa 0,0 l/m 0 min 0 min 0 W/m 12,9 km/h (3 Bft) 100,00 %
29.01.2020 17:44 5,7 C 5,0 C 4,4 C 86 % 1011,4 hPa 0,0 l/m 0 min 0 min 0 W/m 9,7 km/h (2 Bft) 97,87 %
29.01.2020 17:46 5,7 C 5,0 C 4,4 C 86 % 1011,5 hPa 0,0 l/m 0 min 0 min 0 W/m 12,9 km/h (3 Bft) 95,74 %
29.01.2020 17:48 5,7 C 5,0 C 4,4 C 86 % 1011,6 hPa 0,0 l/m 0 min 0 min 0 W/m 9,7 km/h (2 Bft) 97,87 %
29.01.2020 17:50 5,7 C 5,0 C 4,4 C 86 % 1011,6 hPa 0,0 l/m 0 min 0 min 0 W/m 12,9 km/h (3 Bft) 100,00 %
29.01.2020 17:52 5,7 C 5,0 C 4,4 C 85 % 1011,6 hPa 0,0 l/m 0 min 0 min 0 W/m 19,3 km/h (3 Bft) 76,60 %
29.01.2020 17:54 5,7 C 5,0 C 4,4 C 85 % 1011,7 hPa 0,0 l/m 0 min 0 min 0 W/m 6,4 km/h (2 Bft) 79,07 %
29.01.2020 17:56 5,7 C 5,0 C 4,4 C 85 % 1011,7 hPa 0,0 l/m 0 min 0 min 0 W/m 12,9 km/h (3 Bft) 100,00 %
29.01.2020 17:58 5,7 C 5,0 C 4,4 C 85 % 1011,7 hPa 0,0 l/m 0 min 0 min 0 W/m 12,9 km/h (3 Bft) 97,87 %
29.01.2020 18:00 5,7 C 5,0 C 4,4 C 85 % 1011,8 hPa 0,0 l/m 0 min 0 min 0 W/m 16,1 km/h (3 Bft) 97,87 %
29.01.2020 18:02 5,7 C 5,0 C 4,4 C 85 % 1011,8 hPa 0,0 l/m 0 min 0 min 0 W/m 12,9 km/h (3 Bft) 97,87 %
29.01.2020 18:04 5,7 C 5,0 C 4,4 C 85 % 1011,8 hPa 0,0 l/m 0 min 0 min 0 W/m 12,9 km/h (3 Bft) 97,87 %
29.01.2020 18:06 5,7 C 5,0 C 4,4 C 85 % 1011,8 hPa 0,0 l/m 0 min 0 min 0 W/m 9,7 km/h (2 Bft) 97,87 %
29.01.2020 18:08 5,7 C 5,0 C 4,4 C 85 % 1011,9 hPa 0,0 l/m 0 min 0 min 0 W/m 12,9 km/h (3 Bft) 95,74 %
29.01.2020 18:10 5,7 C 5,0 C 4,4 C 85 % 1011,8 hPa 0,0 l/m 0 min 0 min 0 W/m 19,3 km/h (3 Bft) 97,87 %
29.01.2020 18:12 5,7 C 5,0 C 4,4 C 85 % 1011,8 hPa 0,0 l/m 0 min 0 min 0 W/m 16,1 km/h (3 Bft) 97,87 %
29.01.2020 18:14 5,7 C 5,0 C 4,4 C 84 % 1011,9 hPa 0,0 l/m 0 min 0 min 0 W/m 12,9 km/h (3 Bft) 95,74 %
29.01.2020 18:16 5,7 C 5,0 C 4,4 C 84 % 1011,9 hPa 0,0 l/m 0 min 0 min 0 W/m 19,3 km/h (3 Bft) 95,65 %
29.01.2020 18:18 5,7 C 5,0 C 4,4 C 84 % 1011,9 hPa 0,0 l/m 0 min 0 min 0 W/m 9,7 km/h (2 Bft) 97,87 %
29.01.2020 18:20 5,7 C 5,0 C 4,4 C 85 % 1012,0 hPa 0,0 l/m 0 min 0 min 0 W/m 9,7 km/h (2 Bft) 95,74 %
29.01.2020 18:22 5,7 C 5,0 C 4,4 C 85 % 1011,9 hPa 0,0 l/m 0 min 0 min 0 W/m 22,5 km/h (4 Bft) 95,74 %
29.01.2020 18:24 5,7 C 5,0 C 4,4 C 84 % 1011,9 hPa 0,0 l/m 0 min 0 min 0 W/m 22,5 km/h (4 Bft) 97,87 %
29.01.2020 18:26 5,7 C 5,0 C 4,4 C 84 % 1012,0 hPa 0,0 l/m 0 min 0 min 0 W/m 25,7 km/h (4 Bft) 97,87 %
29.01.2020 18:28 5,7 C 5,0 C 4,4 C 84 % 1012,0 hPa 0,0 l/m 0 min 0 min 0 W/m 12,9 km/h (3 Bft) 97,83 %
29.01.2020 18:30 5,7 C 5,0 C 4,4 C 84 % 1012,1 hPa 0,0 l/m 0 min 0 min 0 W/m 16,1 km/h (3 Bft) 97,87 %
29.01.2020 18:32 5,7 C 5,0 C 4,4 C 84 % 1012,1 hPa 0,0 l/m 0 min 0 min 0 W/m 12,9 km/h (3 Bft) 97,87 %
29.01.2020 18:34 5,7 C 5,0 C 4,4 C 84 % 1012,1 hPa 0,0 l/m 0 min 0 min 0 W/m 16,1 km/h (3 Bft) 95,74 %
29.01.2020 18:36 5,7 C 5,0 C 4,4 C 84 % 1012,1 hPa 0,0 l/m 0 min 0 min 0 W/m 16,1 km/h (3 Bft) 97,87 %
29.01.2020 18:38 5,7 C 5,0 C 4,4 C 84 % 1012,2 hPa 0,0 l/m 0 min 0 min 0 W/m 22,5 km/h (4 Bft) 95,74 %
29.01.2020 18:40 5,7 C 5,0 C 4,4 C 84 % 1012,2 hPa 0,0 l/m 0 min 0 min 0 W/m 16,1 km/h (3 Bft) 95,65 %
29.01.2020 18:42 5,7 C 5,0 C 4,4 C 84 % 1012,2 hPa 0,0 l/m 0 min 0 min 0 W/m 16,1 km/h (3 Bft) 93,62 %
29.01.2020 18:44 5,7 C 5,0 C 4,4 C 84 % 1012,2 hPa 0,0 l/m 0 min 0 min 0 W/m 16,1 km/h (3 Bft) 97,87 %
29.01.2020 18:46 5,7 C 5,0 C 4,4 C 84 % 1012,3 hPa 0,0 l/m 0 min 0 min 0 W/m 16,1 km/h (3 Bft) 95,74 %
29.01.2020 18:48 5,7 C 5,0 C 4,4 C 84 % 1012,3 hPa 0,0 l/m 0 min 0 min 0 W/m 12,9 km/h (3 Bft) 97,87 %
29.01.2020 18:50 5,7 C 5,0 C 4,4 C 84 % 1012,3 hPa 0,0 l/m 0 min 0 min 0 W/m 16,1 km/h (3 Bft) 97,87 %
29.01.2020 18:52 5,7 C 5,0 C 4,4 C 84 % 1012,4 hPa 0,0 l/m 0 min 0 min 0 W/m 12,9 km/h (3 Bft) 95,65 %
29.01.2020 18:54 5,7 C 5,0 C 4,4 C 84 % 1012,4 hPa 0,0 l/m 0 min 0 min 0 W/m 6,4 km/h (2 Bft) 97,87 %
29.01.2020 18:56 5,7 C 5,0 C 4,4 C 84 % 1012,5 hPa 0,0 l/m 0 min 0 min 0 W/m 12,9 km/h (3 Bft) 97,87 %
29.01.2020 18:58 5,7 C 5,0 C 4,4 C 84 % 1012,5 hPa 0,0 l/m 0 min 0 min 0 W/m 12,9 km/h (3 Bft) 97,87 %
29.01.2020 19:00 5,7 C 5,0 C 4,4 C 84 % 1012,5 hPa 0,0 l/m 0 min 0 min 0 W/m 12,9 km/h (3 Bft) 97,87 %
29.01.2020 19:02 5,7 C 5,0 C 4,4 C 84 % 1012,5 hPa 0,0 l/m 0 min 0 min 0 W/m 6,4 km/h (2 Bft) 97,87 %
29.01.2020 19:04 5,6 C 5,0 C 4,4 C 84 % 1012,5 hPa 0,0 l/m 0 min 0 min 0 W/m 3,2 km/h (1 Bft) 95,65 %
29.01.2020 19:06 5,6 C 5,0 C 3,9 C 84 % 1012,5 hPa 0,0 l/m 0 min 0 min 0 W/m 0,0 km/h (0 Bft) 93,62 %
29.01.2020 19:08 5,6 C 4,4 C 3,9 C 84 % 1012,5 hPa 0,0 l/m 0 min 0 min 0 W/m 6,4 km/h (2 Bft) 97,87 %
29.01.2020 19:10 5,6 C 4,4 C 3,9 C 84 % 1012,6 hPa 0,0 l/m 0 min 0 min 0 W/m 9,7 km/h (2 Bft) 95,74 %
29.01.2020 19:12 5,6 C 4,4 C 3,9 C 84 % 1012,6 hPa 0,0 l/m 0 min 0 min 0 W/m 6,4 km/h (2 Bft) 97,87 %
29.01.2020 19:14 5,6 C 4,4 C 3,9 C 84 % 1012,5 hPa 0,0 l/m 0 min 0 min 0 W/m 12,9 km/h (3 Bft) 97,83 %
29.01.2020 19:16 5,6 C 4,4 C 3,9 C 84 % 1012,5 hPa 0,0 l/m 0 min 0 min 0 W/m 6,4 km/h (2 Bft) 95,74 %
29.01.2020 19:18 5,5 C 4,4 C 3,9 C 84 % 1012,6 hPa 0,0 l/m 0 min 0 min 0 W/m 9,7 km/h (2 Bft) 93,62 %
29.01.2020 19:20 5,5 C 4,4 C 3,9 C 84 % 1012,6 hPa 0,0 l/m 0 min 0 min 0 W/m 9,7 km/h (2 Bft) 93,62 %
29.01.2020 19:22 5,5 C 4,4 C 3,9 C 84 % 1012,6 hPa 0,0 l/m 0 min 0 min 0 W/m 9,7 km/h (2 Bft) 93,62 %
29.01.2020 19:24 5,5 C 4,4 C 3,9 C 84 % 1012,6 hPa 0,0 l/m 0 min 0 min 0 W/m 9,7 km/h (2 Bft) 93,62 %
29.01.2020 19:26 5,4 C 4,4 C 3,9 C 84 % 1012,6 hPa 0,0 l/m 0 min 0 min 0 W/m 6,4 km/h (2 Bft) 93,48 %
29.01.2020 19:28 5,4 C 4,4 C 3,9 C 84 % 1012,6 hPa 0,0 l/m 0 min 0 min 0 W/m 9,7 km/h (2 Bft) 95,74 %
29.01.2020 19:30 5,4 C 4,4 C 3,9 C 85 % 1012,6 hPa 0,0 l/m 0 min 0 min 0 W/m 9,7 km/h (2 Bft) 95,74 %
29.01.2020 19:32 5,4 C 4,4 C 3,9 C 85 % 1012,7 hPa 0,0 l/m 0 min 0 min 0 W/m 6,4 km/h (2 Bft) 95,74 %
29.01.2020 19:34 5,4 C 4,4 C 3,9 C 85 % 1012,6 hPa 0,0 l/m 0 min 0 min 0 W/m 9,7 km/h (2 Bft) 95,74 %
29.01.2020 19:36 5,4 C 4,4 C 3,9 C 85 % 1012,7 hPa 0,0 l/m 0 min 0 min 0 W/m 9,7 km/h (2 Bft) 93,62 %
29.01.2020 19:38 5,4 C 4,4 C 3,9 C 85 % 1012,6 hPa 0,0 l/m 0 min 0 min 0 W/m 12,9 km/h (3 Bft) 95,65 %
29.01.2020 19:40 5,3 C 4,4 C 3,9 C 85 % 1012,6 hPa 0,0 l/m 0 min 0 min 0 W/m 6,4 km/h (2 Bft) 95,74 %
29.01.2020 19:42 5,3 C 4,4 C 3,9 C 85 % 1012,6 hPa 0,0 l/m 0 min 0 min 0 W/m 6,4 km/h (2 Bft) 95,74 %
29.01.2020 19:44 5,3 C 4,4 C 3,9 C 85 % 1012,7 hPa 0,0 l/m 0 min 0 min 0 W/m 16,1 km/h (3 Bft) 95,74 %
29.01.2020 19:46 5,3 C 4,4 C 3,9 C 85 % 1012,7 hPa 0,0 l/m 0 min 0 min 0 W/m 12,9 km/h (3 Bft) 97,87 %
29.01.2020 19:48 5,3 C 4,4 C 3,9 C 85 % 1012,7 hPa 0,0 l/m 0 min 0 min 0 W/m 12,9 km/h (3 Bft) 97,87 %
29.01.2020 19:50 5,3 C 4,4 C 3,9 C 85 % 1012,8 hPa 0,0 l/m 0 min 0 min 0 W/m 16,1 km/h (3 Bft) 97,83 %
29.01.2020 19:52 5,3 C 4,4 C 3,9 C 85 % 1012,7 hPa 0,0 l/m 0 min 0 min 0 W/m 6,4 km/h (2 Bft) 97,87 %
29.01.2020 19:54 5,2 C 4,4 C 3,9 C 85 % 1012,8 hPa 0,0 l/m 0 min 0 min 0 W/m 6,4 km/h (2 Bft) 97,87 %
29.01.2020 19:56 5,2 C 4,4 C 3,9 C 85 % 1012,7 hPa 0,0 l/m 0 min 0 min 0 W/m 9,7 km/h (2 Bft) 97,87 %
29.01.2020 19:58 5,2 C 4,4 C 3,9 C 85 % 1012,8 hPa 0,0 l/m 0 min 0 min 0 W/m 6,4 km/h (2 Bft) 97,87 %
29.01.2020 20:00 5,2 C 4,4 C 3,9 C 85 % 1012,8 hPa 0,0 l/m 0 min 0 min 0 W/m 9,7 km/h (2 Bft) 95,74 %
29.01.2020 20:02 5,2 C 4,4 C 3,9 C 85 % 1012,8 hPa 0,0 l/m 0 min 0 min 0 W/m 6,4 km/h (2 Bft) 95,65 %
29.01.2020 20:04 5,1 C 4,4 C 3,9 C 85 % 1012,9 hPa 0,0 l/m 0 min 0 min 0 W/m 9,7 km/h (2 Bft) 97,87 %
29.01.2020 20:06 5,1 C 4,4 C 3,9 C 85 % 1012,9 hPa 0,0 l/m 0 min 0 min 0 W/m 6,4 km/h (2 Bft) 100,00 %
29.01.2020 20:08 5,1 C 4,4 C 3,9 C 85 % 1013,0 hPa 0,0 l/m 0 min 0 min 0 W/m 6,4 km/h (2 Bft) 100,00 %
29.01.2020 20:10 5,1 C 4,4 C 3,9 C 85 % 1013,0 hPa 0,0 l/m 0 min 0 min 0 W/m 6,4 km/h (2 Bft) 100,00 %
29.01.2020 20:12 5,1 C 4,4 C 3,9 C 85 % 1013,0 hPa 0,0 l/m 0 min 0 min 0 W/m 9,7 km/h (2 Bft) 95,74 %
29.01.2020 20:14 5,1 C 4,4 C 3,9 C 85 % 1013,0 hPa 0,0 l/m 0 min 0 min 0 W/m 9,7 km/h (2 Bft) 50,00 %
29.01.2020 20:16 5,1 C 3,9 C 3,3 C 85 % 1013,0 hPa 0,0 l/m 0 min 0 min 0 W/m 6,4 km/h (2 Bft) 97,87 %
29.01.2020 20:18 5,1 C 3,9 C 3,3 C 85 % 1013,0 hPa 0,0 l/m 0 min 0 min 0 W/m 6,4 km/h (2 Bft) 97,87 %
29.01.2020 20:20 5,0 C 3,9 C 3,3 C 85 % 1012,9 hPa 0,0 l/m 0 min 0 min 0 W/m 9,7 km/h (2 Bft) 100,00 %
29.01.2020 20:22 5,0 C 3,9 C 3,3 C 85 % 1013,0 hPa 0,0 l/m 0 min 0 min 0 W/m 9,7 km/h (2 Bft) 100,00 %
29.01.2020 20:24 5,0 C 3,9 C 3,3 C 85 % 1013,0 hPa 0,0 l/m 0 min 0 min 0 W/m 6,4 km/h (2 Bft) 100,00 %
29.01.2020 20:26 5,0 C 3,9 C 3,3 C 85 % 1013,1 hPa 0,0 l/m 0 min 0 min 0 W/m 6,4 km/h (2 Bft) 97,87 %
29.01.2020 20:28 4,9 C 3,9 C 3,3 C 85 % 1013,1 hPa 0,0 l/m 0 min 0 min 0 W/m 9,7 km/h (2 Bft) 100,00 %
29.01.2020 20:30 4,9 C 3,9 C 3,3 C 85 % 1013,1 hPa 0,0 l/m 0 min 0 min 0 W/m 12,9 km/h (3 Bft) 100,00 %
29.01.2020 20:32 4,9 C 3,9 C 3,3 C 85 % 1013,1 hPa 0,0 l/m 0 min 0 min 0 W/m 12,9 km/h (3 Bft) 97,87 %
29.01.2020 20:34 4,9 C 3,9 C 3,3 C 85 % 1013,2 hPa 0,0 l/m 0 min 0 min 0 W/m 12,9 km/h (3 Bft) 97,87 %
29.01.2020 20:36 4,9 C 3,9 C 3,3 C 85 % 1013,2 hPa 0,0 l/m 0 min 0 min 0 W/m 6,4 km/h (2 Bft) 97,83 %
29.01.2020 20:38 4,9 C 3,9 C 3,3 C 85 % 1013,2 hPa 0,0 l/m 0 min 0 min 0 W/m 6,4 km/h (2 Bft) 97,87 %
29.01.2020 20:40 4,9 C 4,4 C 3,3 C 85 % 1013,2 hPa 0,0 l/m 0 min 0 min 0 W/m 6,4 km/h (2 Bft) 95,74 %
29.01.2020 20:42 4,9 C 4,4 C 3,3 C 85 % 1013,2 hPa 0,0 l/m 0 min 0 min 0 W/m 12,9 km/h (3 Bft) 97,87 %
29.01.2020 20:44 4,9 C 4,4 C 3,3 C 85 % 1013,3 hPa 0,0 l/m 0 min 0 min 0 W/m 6,4 km/h (2 Bft) 97,87 %
29.01.2020 20:46 4,9 C 4,4 C 3,9 C 85 % 1013,2 hPa 0,0 l/m 0 min 0 min 0 W/m 12,9 km/h (3 Bft) 97,87 %
29.01.2020 20:48 4,9 C 4,4 C 3,9 C 85 % 1013,3 hPa 0,0 l/m 0 min 0 min 0 W/m 12,9 km/h (3 Bft) 97,83 %
29.01.2020 20:50 4,9 C 4,4 C 3,9 C 85 % 1013,3 hPa 0,0 l/m 0 min 0 min 0 W/m 9,7 km/h (2 Bft) 97,87 %
29.01.2020 20:52 4,9 C 4,4 C 3,3 C 85 % 1013,2 hPa 0,0 l/m 0 min 0 min 0 W/m 9,7 km/h (2 Bft) 97,87 %
29.01.2020 20:54 4,9 C 4,4 C 3,9 C 85 % 1013,3 hPa 0,0 l/m 0 min 0 min 0 W/m 16,1 km/h (3 Bft) 97,87 %
29.01.2020 20:56 4,9 C 4,4 C 3,9 C 85 % 1013,3 hPa 0,0 l/m 0 min 0 min 0 W/m 16,1 km/h (3 Bft) 97,87 %
29.01.2020 20:58 4,9 C 4,4 C 3,3 C 85 % 1013,2 hPa 0,0 l/m 0 min 0 min 0 W/m 12,9 km/h (3 Bft) 97,87 %
29.01.2020 21:00 4,8 C 4,4 C 3,3 C 85 % 1013,2 hPa 0,0 l/m 0 min 0 min 0 W/m 12,9 km/h (3 Bft) 95,65 %
29.01.2020 21:02 4,8 C 4,4 C 3,9 C 85 % 1013,3 hPa 0,0 l/m 0 min 0 min 0 W/m 9,7 km/h (2 Bft) 97,87 %
29.01.2020 21:04 4,8 C 4,4 C 3,3 C 85 % 1013,3 hPa 0,0 l/m 0 min 0 min 0 W/m 9,7 km/h (2 Bft) 97,87 %
29.01.2020 21:06 4,9 C 3,9 C 3,3 C 85 % 1013,2 hPa 0,0 l/m 0 min 0 min 0 W/m 12,9 km/h (3 Bft) 95,74 %
29.01.2020 21:08 4,8 C 3,9 C 3,3 C 85 % 1013,3 hPa 0,0 l/m 0 min 0 min 0 W/m 22,5 km/h (4 Bft) 97,87 %
29.01.2020 21:10 4,8 C 4,4 C 3,3 C 85 % 1013,3 hPa 0,0 l/m 0 min 0 min 0 W/m 19,3 km/h (3 Bft) 97,87 %
29.01.2020 21:12 4,8 C 3,9 C 3,3 C 85 % 1013,3 hPa 0,0 l/m 0 min 0 min 0 W/m 12,9 km/h (3 Bft) 97,83 %
29.01.2020 21:14 4,8 C 3,9 C 3,3 C 85 % 1013,3 hPa 0,0 l/m 0 min 0 min 0 W/m 16,1 km/h (3 Bft) 97,87 %
29.01.2020 21:16 4,8 C 4,4 C 3,3 C 85 % 1013,2 hPa 0,0 l/m 0 min 0 min 0 W/m 19,3 km/h (3 Bft) 100,00 %
29.01.2020 21:18 4,8 C 4,4 C 3,3 C 85 % 1013,2 hPa 0,0 l/m 0 min 0 min 0 W/m 16,1 km/h (3 Bft) 97,87 %
29.01.2020 21:20 4,8 C 4,4 C 3,9 C 85 % 1013,2 hPa 0,0 l/m 0 min 0 min 0 W/m 19,3 km/h (3 Bft) 100,00 %
29.01.2020 21:22 4,8 C 4,4 C 3,3 C 85 % 1013,2 hPa 0,0 l/m 0 min 0 min 0 W/m 12,9 km/h (3 Bft) 100,00 %
29.01.2020 21:24 4,8 C 4,4 C 3,3 C 85 % 1013,2 hPa 0,0 l/m 0 min 0 min 0 W/m 16,1 km/h (3 Bft) 100,00 %
29.01.2020 21:26 4,8 C 3,9 C 3,3 C 85 % 1013,2 hPa 0,0 l/m 0 min 0 min 0 W/m 12,9 km/h (3 Bft) 100,00 %
29.01.2020 21:28 4,8 C 4,4 C 3,3 C 85 % 1013,2 hPa 0,0 l/m 0 min 0 min 0 W/m 16,1 km/h (3 Bft) 100,00 %
29.01.2020 21:30 4,8 C 4,4 C 3,3 C 85 % 1013,2 hPa 0,0 l/m 0 min 0 min 0 W/m 16,1 km/h (3 Bft) 100,00 %
29.01.2020 21:32 4,8 C 4,4 C 3,3 C 85 % 1013,2 hPa 0,0 l/m 0 min 0 min 0 W/m 12,9 km/h (3 Bft) 100,00 %
29.01.2020 21:34 4,8 C 4,4 C 3,3 C 85 % 1013,2 hPa 0,0 l/m 0 min 0 min 0 W/m 22,5 km/h (4 Bft) 100,00 %
29.01.2020 21:36 4,8 C 4,4 C 3,3 C 85 % 1013,2 hPa 0,0 l/m 0 min 0 min 0 W/m 19,3 km/h (3 Bft) 100,00 %
29.01.2020 21:38 4,8 C 4,4 C 3,3 C 85 % 1013,2 hPa 0,0 l/m 0 min 0 min 0 W/m 12,9 km/h (3 Bft) 100,00 %
29.01.2020 21:40 4,8 C 3,9 C 3,3 C 85 % 1013,2 hPa 0,0 l/m 0 min 0 min 0 W/m 12,9 km/h (3 Bft) 100,00 %
29.01.2020 21:42 4,8 C 3,9 C 3,3 C 85 % 1013,2 hPa 0,0 l/m 0 min 0 min 0 W/m 16,1 km/h (3 Bft) 100,00 %
29.01.2020 21:44 4,8 C 3,9 C 3,3 C 85 % 1013,3 hPa 0,0 l/m 0 min 0 min 0 W/m 12,9 km/h (3 Bft) 100,00 %
29.01.2020 21:46 4,8 C 3,9 C 3,3 C 85 % 1013,2 hPa 0,0 l/m 0 min 0 min 0 W/m 12,9 km/h (3 Bft) 100,00 %
29.01.2020 21:48 4,8 C 3,9 C 3,3 C 85 % 1013,2 hPa 0,0 l/m 0 min 0 min 0 W/m 12,9 km/h (3 Bft) 100,00 %
29.01.2020 21:50 4,8 C 3,9 C 3,3 C 85 % 1013,2 hPa 0,0 l/m 0 min 0 min 0 W/m 9,7 km/h (2 Bft) 100,00 %
29.01.2020 21:52 4,8 C 3,9 C 3,3 C 85 % 1013,2 hPa 0,0 l/m 0 min 0 min 0 W/m 19,3 km/h (3 Bft) 100,00 %
29.01.2020 21:54 4,8 C 3,9 C 3,3 C 85 % 1013,2 hPa 0,0 l/m 0 min 0 min 0 W/m 12,9 km/h (3 Bft) 100,00 %
29.01.2020 21:56 4,8 C 3,9 C 3,3 C 86 % 1013,2 hPa 0,0 l/m 0 min 0 min 0 W/m 12,9 km/h (3 Bft) 100,00 %
29.01.2020 21:58 4,8 C 3,9 C 3,3 C 86 % 1013,2 hPa 0,0 l/m 0 min 0 min 0 W/m 16,1 km/h (3 Bft) 100,00 %
29.01.2020 22:00 4,8 C 3,9 C 3,3 C 86 % 1013,2 hPa 0,0 l/m 0 min 0 min 0 W/m 19,3 km/h (3 Bft) 100,00 %
29.01.2020 22:02 4,7 C 3,9 C 3,3 C 86 % 1013,2 hPa 0,0 l/m 0 min 0 min 0 W/m 19,3 km/h (3 Bft) 100,00 %
29.01.2020 22:04 4,7 C 3,9 C 3,3 C 86 % 1013,2 hPa 0,0 l/m 0 min 0 min 0 W/m 16,1 km/h (3 Bft) 100,00 %
29.01.2020 22:06 4,7 C 3,9 C 3,3 C 86 % 1013,2 hPa 0,0 l/m 0 min 0 min 0 W/m 16,1 km/h (3 Bft) 97,87 %
29.01.2020 22:08 4,7 C 3,9 C 3,3 C 86 % 1013,2 hPa 0,0 l/m 0 min 0 min 0 W/m 12,9 km/h (3 Bft) 97,87 %
29.01.2020 22:10 4,7 C 3,9 C 3,3 C 86 % 1013,2 hPa 0,0 l/m 0 min 0 min 0 W/m 19,3 km/h (3 Bft) 97,83 %
29.01.2020 22:12 4,7 C 3,9 C 3,3 C 86 % 1013,2 hPa 0,0 l/m 0 min 0 min 0 W/m 16,1 km/h (3 Bft) 97,87 %
29.01.2020 22:14 4,7 C 3,9 C 3,3 C 86 % 1013,2 hPa 0,0 l/m 0 min 0 min 0 W/m 9,7 km/h (2 Bft) 97,87 %
29.01.2020 22:16 4,7 C 3,9 C 3,3 C 86 % 1013,2 hPa 0,0 l/m 0 min 0 min 0 W/m 6,4 km/h (2 Bft) 97,87 %
29.01.2020 22:18 4,7 C 3,9 C 3,3 C 86 % 1013,2 hPa 0,0 l/m 0 min 0 min 0 W/m 6,4 km/h (2 Bft) 97,87 %
29.01.2020 22:20 4,7 C 4,4 C 3,3 C 86 % 1013,1 hPa 0,0 l/m 0 min 0 min 0 W/m 12,9 km/h (3 Bft) 93,62 %
29.01.2020 22:22 4,7 C 4,4 C 3,3 C 86 % 1013,2 hPa 0,0 l/m 0 min 0 min 0 W/m 19,3 km/h (3 Bft) 97,83 %
29.01.2020 22:24 4,7 C 4,4 C 3,9 C 86 % 1013,2 hPa 0,0 l/m 0 min 0 min 0 W/m 16,1 km/h (3 Bft) 95,74 %
29.01.2020 22:26 4,7 C 4,4 C 3,9 C 86 % 1013,1 hPa 0,0 l/m 0 min 0 min 0 W/m 12,9 km/h (3 Bft) 97,87 %
29.01.2020 22:28 4,8 C 4,4 C 3,9 C 86 % 1013,1 hPa 0,0 l/m 0 min 0 min 0 W/m 16,1 km/h (3 Bft) 95,74 %
29.01.2020 22:30 4,8 C 4,4 C 3,9 C 87 % 1013,2 hPa 0,0 l/m 0 min 0 min 0 W/m 25,7 km/h (4 Bft) 95,74 %
29.01.2020 22:32 4,8 C 4,4 C 3,9 C 87 % 1013,2 hPa 0,0 l/m 0 min 0 min 0 W/m 16,1 km/h (3 Bft) 95,74 %
29.01.2020 22:34 4,8 C 4,4 C 3,9 C 87 % 1013,1 hPa 0,0 l/m 0 min 0 min 0 W/m 12,9 km/h (3 Bft) 95,65 %
29.01.2020 22:36 4,8 C 4,4 C 3,9 C 87 % 1013,1 hPa 0,0 l/m 0 min 0 min 0 W/m 19,3 km/h (3 Bft) 93,62 %
29.01.2020 22:38 4,9 C 4,4 C 3,9 C 87 % 1013,2 hPa 0,0 l/m 0 min 0 min 0 W/m 19,3 km/h (3 Bft) 91,49 %
29.01.2020 22:40 4,9 C 4,4 C 3,9 C 87 % 1013,1 hPa 0,0 l/m 0 min 0 min 0 W/m 12,9 km/h (3 Bft) 95,74 %
29.01.2020 22:42 4,9 C 4,4 C 3,9 C 87 % 1013,1 hPa 0,0 l/m 0 min 0 min 0 W/m 9,7 km/h (2 Bft) 95,74 %
29.01.2020 22:44 4,9 C 4,4 C 3,9 C 87 % 1013,2 hPa 0,0 l/m 0 min 0 min 0 W/m 19,3 km/h (3 Bft) 95,65 %
29.01.2020 22:46 4,9 C 4,4 C 3,9 C 87 % 1013,2 hPa 0,0 l/m 0 min 0 min 0 W/m 19,3 km/h (3 Bft) 95,74 %
29.01.2020 22:48 5,0 C 4,4 C 3,9 C 88 % 1013,2 hPa 0,0 l/m 0 min 0 min 0 W/m 12,9 km/h (3 Bft) 95,74 %
29.01.2020 22:50 5,0 C 4,4 C 3,9 C 88 % 1013,2 hPa 0,0 l/m 0 min 0 min 0 W/m 12,9 km/h (3 Bft) 93,62 %
29.01.2020 22:52 5,1 C 5,0 C 3,9 C 88 % 1013,1 hPa 0,0 l/m 0 min 0 min 0 W/m 22,5 km/h (4 Bft) 97,87 %
29.01.2020 22:54 5,1 C 5,0 C 3,9 C 88 % 1013,1 hPa 0,0 l/m 0 min 0 min 0 W/m 19,3 km/h (3 Bft) 97,87 %
29.01.2020 22:56 5,1 C 5,0 C 3,9 C 88 % 1013,1 hPa 0,0 l/m 0 min 0 min 0 W/m 12,9 km/h (3 Bft) 97,83 %
29.01.2020 22:58 5,2 C 5,0 C 3,9 C 88 % 1013,1 hPa 0,0 l/m 0 min 0 min 0 W/m 16,1 km/h (3 Bft) 97,87 %
29.01.2020 23:00 5,2 C 5,0 C 3,9 C 88 % 1013,2 hPa 0,0 l/m 0 min 0 min 0 W/m 16,1 km/h (3 Bft) 97,87 %
29.01.2020 23:02 5,2 C 5,0 C 4,4 C 88 % 1013,1 hPa 0,0 l/m 0 min 0 min 0 W/m 19,3 km/h (3 Bft) 95,74 %
29.01.2020 23:04 5,2 C 5,0 C 4,4 C 88 % 1013,1 hPa 0,0 l/m 0 min 0 min 0 W/m 22,5 km/h (4 Bft) 97,87 %
29.01.2020 23:06 5,3 C 5,0 C 4,4 C 88 % 1013,2 hPa 0,0 l/m 0 min 0 min 0 W/m 25,7 km/h (4 Bft) 95,74 %
29.01.2020 23:08 5,3 C 5,0 C 4,4 C 88 % 1013,1 hPa 0,0 l/m 0 min 0 min 0 W/m 16,1 km/h (3 Bft) 95,65 %
29.01.2020 23:10 5,3 C 5,0 C 4,4 C 88 % 1013,0 hPa 0,0 l/m 0 min 0 min 0 W/m 16,1 km/h (3 Bft) 95,74 %
29.01.2020 23:12 5,3 C 5,0 C 4,4 C 88 % 1013,0 hPa 0,0 l/m 0 min 0 min 0 W/m 22,5 km/h (4 Bft) 95,74 %
29.01.2020 23:14 5,4 C 5,0 C 4,4 C 88 % 1013,0 hPa 0,0 l/m 0 min 0 min 0 W/m 19,3 km/h (3 Bft) 91,49 %
29.01.2020 23:16 5,4 C 5,0 C 4,4 C 88 % 1012,9 hPa 0,0 l/m 0 min 0 min 0 W/m 16,1 km/h (3 Bft) 93,62 %
29.01.2020 23:18 5,4 C 5,0 C 4,4 C 88 % 1012,9 hPa 0,0 l/m 0 min 0 min 0 W/m 25,7 km/h (4 Bft) 95,74 %
29.01.2020 23:20 5,4 C 5,0 C 4,4 C 88 % 1012,9 hPa 0,0 l/m 0 min 0 min 0 W/m 12,9 km/h (3 Bft) 93,48 %
29.01.2020 23:22 5,5 C 5,0 C 4,4 C 88 % 1012,9 hPa 0,0 l/m 0 min 0 min 0 W/m 19,3 km/h (3 Bft) 95,74 %
29.01.2020 23:24 5,5 C 5,0 C 4,4 C 88 % 1012,8 hPa 0,0 l/m 0 min 0 min 0 W/m 16,1 km/h (3 Bft) 95,74 %
29.01.2020 23:26 5,6 C 5,0 C 4,4 C 88 % 1012,8 hPa 0,0 l/m 0 min 0 min 0 W/m 16,1 km/h (3 Bft) 95,74 %
29.01.2020 23:28 5,6 C 5,0 C 4,4 C 88 % 1012,9 hPa 0,0 l/m 0 min 0 min 0 W/m 22,5 km/h (4 Bft) 97,87 %
29.01.2020 23:30 5,6 C 5,0 C 4,4 C 88 % 1012,7 hPa 0,0 l/m 0 min 0 min 0 W/m 16,1 km/h (3 Bft) 97,87 %
29.01.2020 23:32 5,6 C 5,0 C 4,4 C 88 % 1012,9 hPa 0,0 l/m 0 min 0 min 0 W/m 29,0 km/h (5 Bft) 97,83 %
29.01.2020 23:34 5,6 C 5,0 C 4,4 C 88 % 1012,7 hPa 0,0 l/m 0 min 0 min 0 W/m 19,3 km/h (3 Bft) 95,74 %
29.01.2020 23:36 5,7 C 5,0 C 4,4 C 88 % 1012,7 hPa 0,0 l/m 0 min 0 min 0 W/m 25,7 km/h (4 Bft) 97,87 %
29.01.2020 23:38 5,7 C 5,0 C 4,4 C 88 % 1012,7 hPa 0,0 l/m 0 min 0 min 0 W/m 25,7 km/h (4 Bft) 95,74 %
29.01.2020 23:40 5,7 C 5,0 C 4,4 C 88 % 1012,8 hPa 0,0 l/m 0 min 0 min 0 W/m 25,7 km/h (4 Bft) 97,87 %
29.01.2020 23:42 5,8 C 5,6 C 4,4 C 88 % 1012,8 hPa 0,0 l/m 0 min 0 min 0 W/m 25,7 km/h (4 Bft) 97,83 %
29.01.2020 23:44 5,8 C 5,6 C 4,4 C 88 % 1012,9 hPa 0,0 l/m 0 min 0 min 0 W/m 19,3 km/h (3 Bft) 97,87 %
29.01.2020 23:46 5,8 C 5,6 C 4,4 C 88 % 1013,0 hPa 0,0 l/m 0 min 0 min 0 W/m 25,7 km/h (4 Bft) 95,74 %
29.01.2020 23:48 5,8 C 5,6 C 4,4 C 88 % 1013,0 hPa 0,0 l/m 0 min 0 min 0 W/m 22,5 km/h (4 Bft) 95,74 %
29.01.2020 23:50 5,8 C 5,6 C 4,4 C 88 % 1013,0 hPa 0,0 l/m 0 min 0 min 0 W/m 19,3 km/h (3 Bft) 97,87 %
29.01.2020 23:52 5,9 C 5,6 C 4,4 C 88 % 1013,1 hPa 0,0 l/m 0 min 0 min 0 W/m 19,3 km/h (3 Bft) 100,00 %
29.01.2020 23:54 5,9 C 5,6 C 4,4 C 88 % 1013,1 hPa 0,0 l/m 0 min 0 min 0 W/m 19,3 km/h (3 Bft) 100,00 %
29.01.2020 23:56 5,9 C 5,6 C 4,4 C 88 % 1013,2 hPa 0,0 l/m 0 min 0 min 0 W/m 16,1 km/h (3 Bft) 100,00 %
29.01.2020 23:58 5,9 C 5,6 C 4,4 C 88 % 1013,1 hPa 0,0 l/m 0 min 0 min 0 W/m 16,1 km/h (3 Bft) 100,00 %
_ Min-Zeit 06:46 02:30 02:34 13:12 00:00 - - - - 19:06 04:58
Minimum _ 3,2 C 2,2 C 1,7 C 82 % 1000,4 hPa - - - - 0,0 km/h (0 Bft) 48,72 %
_ Max-Zeit 15:10 12:08 12:50 03:36 20:44 14:30 11:02 00:00 15:06 10:42 00:00
Maximum _ 6,3 C 7,8 C 6,1 C 94 % 1013,3 hPa 0,2 l/m 2 min 2 min 294 W/m 41,8 km/h
W (6 Bft)
100,00 %
Durchschnitt _ 4,7 C 4,2 C 3,4 C 89 % 1007,6 hPa #0,4 l/m #1:32 h #1:48 h 93 W/m 17,2 km/h (3 Bft) 97,18 %
© 2020 W. Hausmann